Observation data for Rotan on 09/11/2019      Previous  Date  Next       Current Mesonet Observations  Soil Data  Daily Summary Page  Observations in Plain Language
KRO1 110500Z 15016KT 27/17 A3006 RMK A01 T02710168  RH  053%=      5-min Rain = 0
KRO1 110501Z 16017G22KT 27/17 A3006 RMK A01 T02710168  RH  053%=      5-min Rain = 0
KRO1 110502Z 17020KT 27/17 A3006 RMK A01 T02720169  RH  053%=      5-min Rain = 0
KRO1 110503Z 17021G27KT 27/17 A3006 RMK A01 T02720169  RH  053%=      5-min Rain = 0
KRO1 110504Z 16023KT 27/17 A3006 RMK A01 T02730169  RH  053%=      5-min Rain = 0
KRO1 110505Z 17020KT 27/17 A3006 RMK A01 T02730169  RH  053%=      5-min Rain = 0
KRO1 110506Z 16018G24KT 27/17 A3006 RMK A01 T02730169  RH  053%=      5-min Rain = 0
KRO1 110507Z 16018G23KT 27/17 A3006 RMK A01 T02720169  RH  053%=      5-min Rain = 0
KRO1 110508Z 16018KT 27/17 A3006 RMK A01 T02720170  RH  054%=      5-min Rain = 0
KRO1 110509Z 16016KT 27/17 A3006 RMK A01 T02720170  RH  054%=      5-min Rain = 0
KRO1 110510Z 16018KT 27/17 A3006 RMK A01 T02710170  RH  054%=      5-min Rain = 0
KRO1 110511Z 17017KT 27/17 A3006 RMK A01 T02710170  RH  054%=      5-min Rain = 0
KRO1 110512Z 16013KT 27/17 A3006 RMK A01 T02710170  RH  054%=      5-min Rain = 0
KRO1 110513Z 16012KT 27/17 A3006 RMK A01 T02700170  RH  054%=      5-min Rain = 0
KRO1 110514Z 16017KT 27/17 A3006 RMK A01 T02690170  RH  054%=      5-min Rain = 0
KRO1 110515Z 16016KT 27/17 A3006 RMK A01 T02700171  RH  055%=      5-min Rain = 0
KRO1 110516Z 17014G19KT 27/17 A3006 RMK A01 T02690171  RH  055%=      5-min Rain = 0
KRO1 110517Z 17016KT 27/17 A3006 RMK A01 T02690171  RH  055%=      5-min Rain = 0
KRO1 110518Z 17017KT 27/17 A3006 RMK A01 T02680172  RH  055%=      5-min Rain = 0
KRO1 110519Z 17017KT 27/17 A3007 RMK A01 T02670172  RH  056%=      5-min Rain = 0
KRO1 110520Z 17017KT 27/17 A3007 RMK A01 T02670172  RH  056%=      5-min Rain = 0
KRO1 110521Z 17014KT 27/17 A3007 RMK A01 T02670173  RH  056%=      5-min Rain = 0
KRO1 110522Z 17017KT 27/17 A3007 RMK A01 T02660173  RH  057%=      5-min Rain = 0
KRO1 110523Z 17016KT 27/17 A3007 RMK A01 T02660173  RH  057%=      5-min Rain = 0
KRO1 110524Z 17013KT 27/17 A3007 RMK A01 T02650173  RH  057%=      5-min Rain = 0
KRO1 110525Z 17013KT 27/17 A3007 RMK A01 T02650173  RH  057%=      5-min Rain = 0
KRO1 110526Z 17013KT 27/17 A3007 RMK A01 T02650173  RH  057%=      5-min Rain = 0
KRO1 110527Z 17011KT 26/17 A3007 RMK A01 T02640173  RH  057%=      5-min Rain = 0
KRO1 110528Z 17013KT 26/17 A3007 RMK A01 T02640173  RH  057%=      5-min Rain = 0
KRO1 110529Z 16011KT 26/17 A3007 RMK A01 T02640173  RH  058%=      5-min Rain = 0
KRO1 110530Z 17014KT 26/17 A3007 RMK A01 T02630173  RH  058%=      5-min Rain = 0
KRO1 110531Z 17016KT 26/17 A3007 RMK A01 T02630174  RH  058%=      5-min Rain = 0
KRO1 110532Z 17014G20KT 26/17 A3007 RMK A01 T02630174  RH  058%=      5-min Rain = 0
KRO1 110533Z 16016KT 26/18 A3007 RMK A01 T02630175  RH  058%=      5-min Rain = 0
KRO1 110534Z 17015KT 26/18 A3007 RMK A01 T02630175  RH  058%=      5-min Rain = 0
KRO1 110535Z 17017KT 26/18 A3007 RMK A01 T02630175  RH  059%=      5-min Rain = 0
KRO1 110536Z 17016KT 26/18 A3007 RMK A01 T02630175  RH  059%=      5-min Rain = 0
KRO1 110537Z 16014KT 26/18 A3007 RMK A01 T02630175  RH  059%=      5-min Rain = 0
KRO1 110538Z 17016KT 26/18 A3007 RMK A01 T02620175  RH  059%=      5-min Rain = 0
KRO1 110539Z 16015KT 26/18 A3007 RMK A01 T02620175  RH  059%=      5-min Rain = 0
KRO1 110540Z 16016G21KT 26/18 A3007 RMK A01 T02620175  RH  059%=      5-min Rain = 0
KRO1 110541Z 16016KT 26/18 A3007 RMK A01 T02620175  RH  059%=      5-min Rain = 0
KRO1 110542Z 16019KT 26/18 A3007 RMK A01 T02620175  RH  059%=      5-min Rain = 0
KRO1 110543Z 16018KT 26/17 A3006 RMK A01 T02620174  RH  059%=      5-min Rain = 0
KRO1 110544Z 16015KT 26/17 A3006 RMK A01 T02620174  RH  058%=      5-min Rain = 0
KRO1 110545Z 17016KT 26/17 A3006 RMK A01 T02620174  RH  059%=      5-min Rain = 0
KRO1 110546Z 16014KT 26/17 A3006 RMK A01 T02610174  RH  059%=      5-min Rain = 0
KRO1 110547Z 16016KT 26/17 A3006 RMK A01 T02610174  RH  059%=      5-min Rain = 0
KRO1 110548Z 16015G22KT 26/17 A3006 RMK A01 T02610174  RH  059%=      5-min Rain = 0
KRO1 110549Z 16016KT 26/17 A3006 RMK A01 T02610174  RH  059%=      5-min Rain = 0
KRO1 110550Z 17015KT 26/17 A3006 RMK A01 T02600174  RH  059%=      5-min Rain = 0
KRO1 110551Z 17015KT 26/17 A3006 RMK A01 T02600174  RH  059%=      5-min Rain = 0
KRO1 110552Z 17015KT 26/17 A3006 RMK A01 T02600174  RH  059%=      5-min Rain = 0
KRO1 110553Z 17013KT 26/17 A3006 RMK A01 T02600174  RH  059%=      5-min Rain = 0
KRO1 110554Z 17016KT 26/17 A3006 RMK A01 T02590174  RH  059%=      5-min Rain = 0
KRO1 110555Z 17014KT 26/17 A3006 RMK A01 T02590174  RH  059%=      5-min Rain = 0
KRO1 110556Z 17015KT 26/17 A3006 RMK A01 T02590174  RH  060%=      5-min Rain = 0
KRO1 110557Z 18016KT 26/17 A3006 RMK A01 T02580174  RH  060%=      5-min Rain = 0
KRO1 110558Z 17015KT 26/17 A3006 RMK A01 T02580174  RH  060%=      5-min Rain = 0
KRO1 110559Z 18015KT 26/17 A3006 RMK A01 T02580174  RH  060%=      5-min Rain = 0
KRO1 110600Z 17015KT 26/17 A3006 RMK A01 T02580174  RH  060%=      5-min Rain = 0
KRO1 110601Z 17014G19KT 26/17 A3006 RMK A01 T02580174  RH  060%=      5-min Rain = 0
KRO1 110602Z 18015KT 26/17 A3006 RMK A01 T02580174  RH  060%=      5-min Rain = 0
KRO1 110603Z 17014KT 26/17 A3006 RMK A01 T02580174  RH  060%=      5-min Rain = 0
KRO1 110604Z 17014KT 26/17 A3006 RMK A01 T02580174  RH  060%=      5-min Rain = 0
KRO1 110605Z 18012KT 26/17 A3006 RMK A01 T02570174  RH  060%=      5-min Rain = 0
KRO1 110606Z 17013KT 26/17 A3006 RMK A01 T02570174  RH  060%=      5-min Rain = 0
KRO1 110607Z 17015KT 26/17 A3006 RMK A01 T02570174  RH  060%=      5-min Rain = 0
KRO1 110608Z 17011KT 26/17 A3006 RMK A01 T02570174  RH  060%=      5-min Rain = 0
KRO1 110609Z 17013KT 26/17 A3006 RMK A01 T02560174  RH  060%=      5-min Rain = 0
KRO1 110610Z 17011KT 26/17 A3006 RMK A01 T02560174  RH  061%=      5-min Rain = 0
KRO1 110611Z 17013KT 26/17 A3006 RMK A01 T02560174  RH  061%=      5-min Rain = 0
KRO1 110612Z 17012KT 26/17 A3006 RMK A01 T02560174  RH  061%=      5-min Rain = 0
KRO1 110613Z 17012KT 26/17 A3006 RMK A01 T02550174  RH  061%=      5-min Rain = 0
KRO1 110614Z 16011KT 26/17 A3006 RMK A01 T02550174  RH  061%=      5-min Rain = 0
KRO1 110615Z 16011KT 26/17 A3006 RMK A01 T02550174  RH  061%=      5-min Rain = 0
KRO1 110616Z 16011KT 25/17 A3006 RMK A01 T02540174  RH  061%=      5-min Rain = 0
KRO1 110617Z 16011KT 25/17 A3006 RMK A01 T02540174  RH  061%=      5-min Rain = 0
KRO1 110618Z 16009KT 25/17 A3006 RMK A01 T02540174  RH  061%=      5-min Rain = 0
KRO1 110619Z 16010KT 25/17 A3006 RMK A01 T02540174  RH  061%=      5-min Rain = 0
KRO1 110620Z 16011KT 25/17 A3006 RMK A01 T02530174  RH  062%=      5-min Rain = 0
KRO1 110621Z 16010KT 25/18 A3006 RMK A01 T02530175  RH  062%=      5-min Rain = 0
KRO1 110622Z 17010KT 25/17 A3006 RMK A01 T02530174  RH  062%=      5-min Rain = 0
KRO1 110623Z 17011KT 25/17 A3006 RMK A01 T02530174  RH  062%=      5-min Rain = 0
KRO1 110624Z 17009KT 25/17 A3006 RMK A01 T02530174  RH  062%=      5-min Rain = 0
KRO1 110625Z 17009KT 25/18 A3006 RMK A01 T02530175  RH  062%=      5-min Rain = 0
KRO1 110626Z 17009KT 25/17 A3006 RMK A01 T02520174  RH  062%=      5-min Rain = 0
KRO1 110627Z 18010KT 25/17 A3006 RMK A01 T02510174  RH  062%=      5-min Rain = 0
KRO1 110628Z 18009KT 25/17 A3006 RMK A01 T02510174  RH  062%=      5-min Rain = 0
KRO1 110629Z 18009KT 25/17 A3006 RMK A01 T02510174  RH  062%=      5-min Rain = 0
KRO1 110630Z 18009KT 25/18 A3006 RMK A01 T02510175  RH  063%=      5-min Rain = 0
KRO1 110631Z 18008KT 25/17 A3006 RMK A01 T02500174  RH  063%=      5-min Rain = 0
KRO1 110632Z 18008KT 25/17 A3006 RMK A01 T02500174  RH  063%=      5-min Rain = 0
KRO1 110633Z 17010KT 25/17 A3006 RMK A01 T02500174  RH  063%=      5-min Rain = 0
KRO1 110634Z 17011KT 25/17 A3006 RMK A01 T02500174  RH  063%=      5-min Rain = 0
KRO1 110635Z 17011KT 25/17 A3006 RMK A01 T02500174  RH  063%=      5-min Rain = 0
KRO1 110636Z 17009KT 25/17 A3006 RMK A01 T02500174  RH  063%=      5-min Rain = 0
KRO1 110637Z 17009KT 25/18 A3006 RMK A01 T02510175  RH  063%=      5-min Rain = 0
KRO1 110638Z 17011KT 25/17 A3006 RMK A01 T02500174  RH  063%=      5-min Rain = 0
KRO1 110639Z 17009KT 25/17 A3006 RMK A01 T02500174  RH  063%=      5-min Rain = 0
KRO1 110640Z 17011KT 25/17 A3006 RMK A01 T02500174  RH  063%=      5-min Rain = 0
KRO1 110641Z 17012KT 25/17 A3006 RMK A01 T02500174  RH  063%=      5-min Rain = 0
KRO1 110642Z 17011KT 25/17 A3006 RMK A01 T02500174  RH  063%=      5-min Rain = 0
KRO1 110643Z 16010KT 25/17 A3006 RMK A01 T02500174  RH  063%=      5-min Rain = 0
KRO1 110644Z 16010KT 25/17 A3006 RMK A01 T02500174  RH  063%=      5-min Rain = 0
KRO1 110645Z 16010KT 25/17 A3006 RMK A01 T02500174  RH  063%=      5-min Rain = 0
KRO1 110646Z 16009KT 25/17 A3006 RMK A01 T02500174  RH  063%=      5-min Rain = 0
KRO1 110647Z 17007KT 25/17 A3006 RMK A01 T02500174  RH  063%=      5-min Rain = 0
KRO1 110648Z 16008KT 25/17 A3006 RMK A01 T02490174  RH  063%=      5-min Rain = 0
KRO1 110649Z 17007KT 25/17 A3006 RMK A01 T02480174  RH  063%=      5-min Rain = 0
KRO1 110650Z 17008KT 25/17 A3006 RMK A01 T02480174  RH  064%=      5-min Rain = 0
KRO1 110651Z 17008KT 25/17 A3006 RMK A01 T02480174  RH  064%=      5-min Rain = 0
KRO1 110652Z 17008KT 25/17 A3006 RMK A01 T02470174  RH  064%=      5-min Rain = 0
KRO1 110653Z 16008KT 25/17 A3006 RMK A01 T02470174  RH  064%=      5-min Rain = 0
KRO1 110654Z 16008KT 25/17 A3006 RMK A01 T02470174  RH  064%=      5-min Rain = 0
KRO1 110655Z 16008KT 25/17 A3006 RMK A01 T02470174  RH  064%=      5-min Rain = 0
KRO1 110656Z 16008KT 25/17 A3006 RMK A01 T02470174  RH  064%=      5-min Rain = 0
KRO1 110657Z 16008KT 25/17 A3006 RMK A01 T02460174  RH  064%=      5-min Rain = 0
KRO1 110658Z 16008KT 25/17 A3006 RMK A01 T02460174  RH  064%=      5-min Rain = 0
KRO1 110659Z 15008KT 25/17 A3006 RMK A01 T02460174  RH  064%=      5-min Rain = 0
KRO1 110700Z 15007KT 25/17 A3006 RMK A01 T02460174  RH  064%=      5-min Rain = 0
KRO1 110701Z 16008KT 25/17 A3006 RMK A01 T02450173  RH  064%=      5-min Rain = 0
KRO1 110702Z 16008KT 25/17 A3006 RMK A01 T02450173  RH  064%=      5-min Rain = 0
KRO1 110703Z 16008KT 25/17 A3006 RMK A01 T02450173  RH  064%=      5-min Rain = 0
KRO1 110704Z 17008KT 25/17 A3006 RMK A01 T02450172  RH  064%=      5-min Rain = 0
KRO1 110705Z 16008KT 25/17 A3006 RMK A01 T02450173  RH  064%=      5-min Rain = 0
KRO1 110706Z 15008KT 25/17 A3007 RMK A01 T02450173  RH  064%=      5-min Rain = 0
KRO1 110707Z 15008KT 25/17 A3007 RMK A01 T02450173  RH  064%=      5-min Rain = 0
KRO1 110708Z 15008KT 24/17 A3007 RMK A01 T02440173  RH  064%=      5-min Rain = 0
KRO1 110709Z 15008KT 24/17 A3007 RMK A01 T02440173  RH  065%=      5-min Rain = 0
KRO1 110710Z 15007KT 24/17 A3007 RMK A01 T02430173  RH  065%=      5-min Rain = 0
KRO1 110711Z 15007KT 24/17 A3007 RMK A01 T02430173  RH  065%=      5-min Rain = 0
KRO1 110712Z 15008KT 24/17 A3007 RMK A01 T02430173  RH  065%=      5-min Rain = 0
KRO1 110713Z 15009KT 24/17 A3007 RMK A01 T02430174  RH  065%=      5-min Rain = 0
KRO1 110714Z 16009KT 24/17 A3007 RMK A01 T02430174  RH  065%=      5-min Rain = 0
KRO1 110715Z 16010KT 24/17 A3007 RMK A01 T02430174  RH  065%=      5-min Rain = 0
KRO1 110716Z 16010KT 24/17 A3007 RMK A01 T02430173  RH  065%=      5-min Rain = 0
KRO1 110717Z 16009KT 24/17 A3007 RMK A01 T02430173  RH  065%=      5-min Rain = 0
KRO1 110718Z 16009KT 24/17 A3007 RMK A01 T02440173  RH  065%=      5-min Rain = 0
KRO1 110719Z 16009KT 24/17 A3007 RMK A01 T02430173  RH  065%=      5-min Rain = 0
KRO1 110720Z 16010KT 24/17 A3007 RMK A01 T02430173  RH  065%=      5-min Rain = 0
KRO1 110721Z 16009KT 24/17 A3007 RMK A01 T02430173  RH  065%=      5-min Rain = 0
KRO1 110722Z 16008KT 24/17 A3007 RMK A01 T02440173  RH  065%=      5-min Rain = 0
KRO1 110723Z 16010KT 24/17 A3007 RMK A01 T02430173  RH  065%=      5-min Rain = 0
KRO1 110724Z 16009KT 24/17 A3007 RMK A01 T02430173  RH  065%=      5-min Rain = 0
KRO1 110725Z 16011KT 24/17 A3007 RMK A01 T02440173  RH  064%=      5-min Rain = 0
KRO1 110726Z 17011KT 24/17 A3007 RMK A01 T02440173  RH  064%=      5-min Rain = 0
KRO1 110727Z 16011KT 24/17 A3007 RMK A01 T02440173  RH  065%=      5-min Rain = 0
KRO1 110728Z 16010KT 24/17 A3007 RMK A01 T02440173  RH  064%=      5-min Rain = 0
KRO1 110729Z 17010KT 24/17 A3007 RMK A01 T02440172  RH  064%=      5-min Rain = 0
KRO1 110730Z 16013KT 24/17 A3007 RMK A01 T02440173  RH  064%=      5-min Rain = 0
KRO1 110731Z 16011KT 24/17 A3007 RMK A01 T02440172  RH  064%=      5-min Rain = 0
KRO1 110732Z 16015KT 25/17 A3006 RMK A01 T02450172  RH  064%=      5-min Rain = 0
KRO1 110733Z 17011KT 25/17 A3006 RMK A01 T02450172  RH  064%=      5-min Rain = 0
KRO1 110734Z 17010KT 25/17 A3006 RMK A01 T02450172  RH  064%=      5-min Rain = 0
KRO1 110735Z 17014KT 25/17 A3006 RMK A01 T02450172  RH  064%=      5-min Rain = 0
KRO1 110736Z 17013KT 25/17 A3006 RMK A01 T02450172  RH  064%=      5-min Rain = 0
KRO1 110737Z 16013KT 25/17 A3006 RMK A01 T02450172  RH  064%=      5-min Rain = 0
KRO1 110738Z 17013KT 25/17 A3006 RMK A01 T02450172  RH  064%=      5-min Rain = 0
KRO1 110739Z 17014KT 25/17 A3006 RMK A01 T02450173  RH  064%=      5-min Rain = 0
KRO1 110740Z 16011KT 25/17 A3006 RMK A01 T02450172  RH  064%=      5-min Rain = 0
KRO1 110741Z 16013G18KT 24/17 A3006 RMK A01 T02440172  RH  064%=      5-min Rain = 0
KRO1 110742Z 17014KT 24/17 A3006 RMK A01 T02440172  RH  064%=      5-min Rain = 0
KRO1 110743Z 17013KT 25/17 A3006 RMK A01 T02450172  RH  064%=      5-min Rain = 0
KRO1 110744Z 17012KT 25/17 A3006 RMK A01 T02450172  RH  064%=      5-min Rain = 0
KRO1 110745Z 17013KT 25/17 A3006 RMK A01 T02450172  RH  064%=      5-min Rain = 0
KRO1 110746Z 17013KT 24/17 A3006 RMK A01 T02440172  RH  064%=      5-min Rain = 0
KRO1 110747Z 17014KT 24/17 A3006 RMK A01 T02440172  RH  064%=      5-min Rain = 0
KRO1 110748Z 17013KT 24/17 A3006 RMK A01 T02440172  RH  064%=      5-min Rain = 0
KRO1 110749Z 17012KT 24/17 A3006 RMK A01 T02440172  RH  064%=      5-min Rain = 0
KRO1 110750Z 17011KT 24/17 A3006 RMK A01 T02440172  RH  064%=      5-min Rain = 0
KRO1 110751Z 17011KT 24/17 A3006 RMK A01 T02430172  RH  064%=      5-min Rain = 0
KRO1 110752Z 17012KT 24/17 A3006 RMK A01 T02430172  RH  065%=      5-min Rain = 0
KRO1 110753Z 17012KT 24/17 A3006 RMK A01 T02430172  RH  065%=      5-min Rain = 0
KRO1 110754Z 17011KT 24/17 A3006 RMK A01 T02430172  RH  065%=      5-min Rain = 0
KRO1 110755Z 17011KT 24/17 A3006 RMK A01 T02430172  RH  065%=      5-min Rain = 0
KRO1 110756Z 17011KT 24/17 A3006 RMK A01 T02430172  RH  065%=      5-min Rain = 0
KRO1 110757Z 17010KT 24/17 A3006 RMK A01 T02420172  RH  065%=      5-min Rain = 0
KRO1 110758Z 17010KT 24/17 A3006 RMK A01 T02420172  RH  065%=      5-min Rain = 0
KRO1 110759Z 17009KT 24/17 A3006 RMK A01 T02410172  RH  065%=      5-min Rain = 0
KRO1 110800Z 17009KT 24/17 A3006 RMK A01 T02410172  RH  065%=      5-min Rain = 0
KRO1 110801Z 17010KT 24/17 A3006 RMK A01 T02400172  RH  065%=      5-min Rain = 0
KRO1 110802Z 16010KT 24/17 A3006 RMK A01 T02400172  RH  066%=      5-min Rain = 0
KRO1 110803Z 17010KT 24/17 A3006 RMK A01 T02400172  RH  066%=      5-min Rain = 0
KRO1 110804Z 16009KT 24/17 A3006 RMK A01 T02400172  RH  066%=      5-min Rain = 0
KRO1 110805Z 17009KT 24/17 A3006 RMK A01 T02390172  RH  066%=      5-min Rain = 0
KRO1 110806Z 17010KT 24/17 A3006 RMK A01 T02400172  RH  066%=      5-min Rain = 0
KRO1 110807Z 18011KT 24/17 A3006 RMK A01 T02390172  RH  066%=      5-min Rain = 0
KRO1 110808Z 17012KT 24/17 A3006 RMK A01 T02390172  RH  066%=      5-min Rain = 0
KRO1 110809Z 17011KT 24/17 A3006 RMK A01 T02390172  RH  066%=      5-min Rain = 0
KRO1 110810Z 18010KT 24/17 A3006 RMK A01 T02400172  RH  066%=      5-min Rain = 0
KRO1 110811Z 18008KT 24/17 A3006 RMK A01 T02400172  RH  066%=      5-min Rain = 0
KRO1 110812Z 18010KT 24/17 A3006 RMK A01 T02390172  RH  066%=      5-min Rain = 0
KRO1 110813Z 18009KT 24/17 A3006 RMK A01 T02390172  RH  066%=      5-min Rain = 0
KRO1 110814Z 17009KT 24/17 A3006 RMK A01 T02380172  RH  066%=      5-min Rain = 0
KRO1 110815Z 17009KT 24/17 A3006 RMK A01 T02380172  RH  067%=      5-min Rain = 0
KRO1 110816Z 17012KT 24/17 A3006 RMK A01 T02380172  RH  067%=      5-min Rain = 0
KRO1 110817Z 17010KT 24/17 A3006 RMK A01 T02380173  RH  067%=      5-min Rain = 0
KRO1 110818Z 16009KT 24/17 A3006 RMK A01 T02380172  RH  067%=      5-min Rain = 0
KRO1 110819Z 17009KT 24/17 A3006 RMK A01 T02380172  RH  067%=      5-min Rain = 0
KRO1 110820Z 17010KT 24/17 A3006 RMK A01 T02380172  RH  067%=      5-min Rain = 0
KRO1 110821Z 17011KT 24/17 A3006 RMK A01 T02380172  RH  067%=      5-min Rain = 0
KRO1 110822Z 17011KT 24/17 A3006 RMK A01 T02380172  RH  067%=      5-min Rain = 0
KRO1 110823Z 17009KT 24/17 A3006 RMK A01 T02380173  RH  067%=      5-min Rain = 0
KRO1 110824Z 17009KT 24/17 A3006 RMK A01 T02370172  RH  067%=      5-min Rain = 0
KRO1 110825Z 17010KT 24/17 A3006 RMK A01 T02370173  RH  067%=      5-min Rain = 0
KRO1 110826Z 17010KT 24/17 A3006 RMK A01 T02360172  RH  067%=      5-min Rain = 0
KRO1 110827Z 17009KT 24/17 A3006 RMK A01 T02360173  RH  067%=      5-min Rain = 0
KRO1 110828Z 17009KT 24/17 A3006 RMK A01 T02360172  RH  067%=      5-min Rain = 0
KRO1 110829Z 17009KT 24/17 A3006 RMK A01 T02360172  RH  068%=      5-min Rain = 0
KRO1 110830Z 17010KT 24/17 A3006 RMK A01 T02350172  RH  068%=      5-min Rain = 0
KRO1 110831Z 17010KT 24/17 A3006 RMK A01 T02350172  RH  068%=      5-min Rain = 0
KRO1 110832Z 17010KT 24/17 A3006 RMK A01 T02350172  RH  068%=      5-min Rain = 0
KRO1 110833Z 17010KT 24/17 A3006 RMK A01 T02350172  RH  068%=      5-min Rain = 0
KRO1 110834Z 17010KT 24/17 A3006 RMK A01 T02350172  RH  068%=      5-min Rain = 0
KRO1 110835Z 16010KT 24/17 A3006 RMK A01 T02350172  RH  068%=      5-min Rain = 0
KRO1 110836Z 16009KT 24/17 A3006 RMK A01 T02350172  RH  068%=      5-min Rain = 0
KRO1 110837Z 16009KT 23/17 A3006 RMK A01 T02340172  RH  068%=      5-min Rain = 0
KRO1 110838Z 16009KT 23/17 A3006 RMK A01 T02340172  RH  068%=      5-min Rain = 0
KRO1 110839Z 16009KT 23/17 A3006 RMK A01 T02340172  RH  068%=      5-min Rain = 0
KRO1 110840Z 16010KT 23/17 A3006 RMK A01 T02330172  RH  068%=      5-min Rain = 0
KRO1 110841Z 16010KT 23/17 A3006 RMK A01 T02330172  RH  069%=      5-min Rain = 0
KRO1 110842Z 16010KT 23/17 A3006 RMK A01 T02330172  RH  069%=      5-min Rain = 0
KRO1 110843Z 15009KT 23/17 A3006 RMK A01 T02330172  RH  069%=      5-min Rain = 0
KRO1 110844Z 16009KT 23/17 A3006 RMK A01 T02320172  RH  069%=      5-min Rain = 0
KRO1 110845Z 16008KT 23/17 A3006 RMK A01 T02320172  RH  069%=      5-min Rain = 0
KRO1 110846Z 16008KT 23/17 A3006 RMK A01 T02320172  RH  069%=      5-min Rain = 0
KRO1 110847Z 16008KT 23/17 A3006 RMK A01 T02310172  RH  069%=      5-min Rain = 0
KRO1 110848Z 16009KT 23/17 A3006 RMK A01 T02310172  RH  069%=      5-min Rain = 0
KRO1 110849Z 16009KT 23/17 A3006 RMK A01 T02310172  RH  069%=      5-min Rain = 0
KRO1 110850Z 17008KT 23/17 A3006 RMK A01 T02310172  RH  069%=      5-min Rain = 0
KRO1 110851Z 17009KT 23/17 A3006 RMK A01 T02310172  RH  069%=      5-min Rain = 0
KRO1 110852Z 17010KT 23/17 A3006 RMK A01 T02310172  RH  070%=      5-min Rain = 0
KRO1 110853Z 17011KT 23/17 A3006 RMK A01 T02310172  RH  070%=      5-min Rain = 0
KRO1 110854Z 17011KT 23/17 A3006 RMK A01 T02310172  RH  070%=      5-min Rain = 0
KRO1 110855Z 17009KT 23/17 A3006 RMK A01 T02310172  RH  069%=      5-min Rain = 0
KRO1 110856Z 17009KT 23/17 A3006 RMK A01 T02310172  RH  069%=      5-min Rain = 0
KRO1 110857Z 16008KT 23/17 A3006 RMK A01 T02310172  RH  070%=      5-min Rain = 0
KRO1 110858Z 16010KT 23/17 A3006 RMK A01 T02300172  RH  070%=      5-min Rain = 0
KRO1 110859Z 16009KT 23/17 A3006 RMK A01 T02300173  RH  070%=      5-min Rain = 0
KRO1 110900Z 16009KT 23/17 A3006 RMK A01 T02300172  RH  070%=      5-min Rain = 0
KRO1 110901Z 16009KT 23/17 A3006 RMK A01 T02290172  RH  070%=      5-min Rain = 0
KRO1 110902Z 16010KT 23/17 A3006 RMK A01 T02290172  RH  070%=      5-min Rain = 0
KRO1 110903Z 16010KT 23/17 A3006 RMK A01 T02290173  RH  070%=      5-min Rain = 0
KRO1 110904Z 16009KT 23/17 A3006 RMK A01 T02290172  RH  070%=      5-min Rain = 0
KRO1 110905Z 16009KT 23/17 A3006 RMK A01 T02290172  RH  070%=      5-min Rain = 0
KRO1 110906Z 16008KT 23/17 A3006 RMK A01 T02290172  RH  070%=      5-min Rain = 0
KRO1 110907Z 16008KT 23/17 A3006 RMK A01 T02290173  RH  070%=      5-min Rain = 0
KRO1 110908Z 16009KT 23/17 A3006 RMK A01 T02290173  RH  070%=      5-min Rain = 0
KRO1 110909Z 16009KT 23/17 A3006 RMK A01 T02290173  RH  071%=      5-min Rain = 0
KRO1 110910Z 16009KT 23/17 A3006 RMK A01 T02290173  RH  071%=      5-min Rain = 0
KRO1 110911Z 16008KT 23/17 A3006 RMK A01 T02290173  RH  071%=      5-min Rain = 0
KRO1 110912Z 16009KT 23/17 A3006 RMK A01 T02290173  RH  071%=      5-min Rain = 0
KRO1 110913Z 17010KT 23/17 A3006 RMK A01 T02290173  RH  071%=      5-min Rain = 0
KRO1 110914Z 17010KT 23/17 A3006 RMK A01 T02290173  RH  071%=      5-min Rain = 0
KRO1 110915Z 17009KT 23/17 A3006 RMK A01 T02290173  RH  071%=      5-min Rain = 0
KRO1 110916Z 17009KT 23/17 A3006 RMK A01 T02280173  RH  071%=      5-min Rain = 0
KRO1 110917Z 17008KT 23/17 A3006 RMK A01 T02280173  RH  071%=      5-min Rain = 0
KRO1 110918Z 17008KT 23/17 A3006 RMK A01 T02280173  RH  071%=      5-min Rain = 0
KRO1 110919Z 17008KT 23/17 A3006 RMK A01 T02270173  RH  071%=      5-min Rain = 0
KRO1 110920Z 16009KT 23/17 A3006 RMK A01 T02270173  RH  071%=      5-min Rain = 0
KRO1 110921Z 16009KT 23/17 A3006 RMK A01 T02270173  RH  072%=      5-min Rain = 0
KRO1 110922Z 16008KT 23/17 A3006 RMK A01 T02270173  RH  071%=      5-min Rain = 0
KRO1 110923Z 16009KT 23/17 A3006 RMK A01 T02270173  RH  072%=      5-min Rain = 0
KRO1 110924Z 16008KT 23/17 A3006 RMK A01 T02260173  RH  072%=      5-min Rain = 0
KRO1 110925Z 16009KT 23/17 A3006 RMK A01 T02270173  RH  072%=      5-min Rain = 0
KRO1 110926Z 16008KT 23/17 A3006 RMK A01 T02260173  RH  072%=      5-min Rain = 0
KRO1 110927Z 16008KT 23/17 A3006 RMK A01 T02260173  RH  072%=      5-min Rain = 0
KRO1 110928Z 16008KT 23/17 A3006 RMK A01 T02260173  RH  072%=      5-min Rain = 0
KRO1 110929Z 16008KT 23/17 A3006 RMK A01 T02260173  RH  072%=      5-min Rain = 0
KRO1 110930Z 16009KT 23/17 A3006 RMK A01 T02260173  RH  072%=      5-min Rain = 0
KRO1 110931Z 16010KT 23/17 A3006 RMK A01 T02260173  RH  072%=      5-min Rain = 0
KRO1 110932Z 16009KT 23/17 A3006 RMK A01 T02260173  RH  072%=      5-min Rain = 0
KRO1 110933Z 16009KT 23/17 A3006 RMK A01 T02260173  RH  072%=      5-min Rain = 0
KRO1 110934Z 16008KT 23/17 A3006 RMK A01 T02260173  RH  072%=      5-min Rain = 0
KRO1 110935Z 16008KT 23/17 A3007 RMK A01 T02260173  RH  072%=      5-min Rain = 0
KRO1 110936Z 16009KT 23/17 A3007 RMK A01 T02250173  RH  072%=      5-min Rain = 0
KRO1 110937Z 16009KT 23/17 A3007 RMK A01 T02250173  RH  072%=      5-min Rain = 0
KRO1 110938Z 16008KT 23/17 A3007 RMK A01 T02250172  RH  072%=      5-min Rain = 0
KRO1 110939Z 16008KT 23/17 A3007 RMK A01 T02250173  RH  072%=      5-min Rain = 0
KRO1 110940Z 16008KT 22/17 A3007 RMK A01 T02240172  RH  073%=      5-min Rain = 0
KRO1 110941Z 16008KT 22/17 A3007 RMK A01 T02240172  RH  073%=      5-min Rain = 0
KRO1 110942Z 16008KT 22/17 A3007 RMK A01 T02240172  RH  073%=      5-min Rain = 0
KRO1 110943Z 16008KT 22/17 A3007 RMK A01 T02240172  RH  073%=      5-min Rain = 0
KRO1 110944Z 16009KT 22/17 A3007 RMK A01 T02240172  RH  073%=      5-min Rain = 0
KRO1 110945Z 17008KT 22/17 A3007 RMK A01 T02240172  RH  073%=      5-min Rain = 0
KRO1 110946Z 17008KT 22/17 A3006 RMK A01 T02240172  RH  073%=      5-min Rain = 0
KRO1 110947Z 17009KT 22/17 A3006 RMK A01 T02240172  RH  073%=      5-min Rain = 0
KRO1 110948Z 16009KT 22/17 A3006 RMK A01 T02240172  RH  072%=      5-min Rain = 0
KRO1 110949Z 17009KT 22/17 A3006 RMK A01 T02240172  RH  072%=      5-min Rain = 0
KRO1 110950Z 17009KT 22/17 A3006 RMK A01 T02240172  RH  072%=      5-min Rain = 0
KRO1 110951Z 16009KT 22/17 A3006 RMK A01 T02240172  RH  072%=      5-min Rain = 0
KRO1 110952Z 17010KT 22/17 A3006 RMK A01 T02240171  RH  072%=      5-min Rain = 0
KRO1 110953Z 17012G17KT 22/17 A3006 RMK A01 T02240172  RH  072%=      5-min Rain = 0
KRO1 110954Z 16011KT 23/17 A3006 RMK A01 T02250172  RH  072%=      5-min Rain = 0
KRO1 110955Z 17012KT 23/17 A3006 RMK A01 T02260172  RH  071%=      5-min Rain = 0
KRO1 110956Z 17011KT 23/17 A3006 RMK A01 T02260171  RH  071%=      5-min Rain = 0
KRO1 110957Z 16010KT 23/17 A3007 RMK A01 T02260171  RH  071%=      5-min Rain = 0
KRO1 110958Z 17012KT 23/17 A3007 RMK A01 T02260172  RH  071%=      5-min Rain = 0
KRO1 110959Z 16011KT 23/17 A3007 RMK A01 T02260172  RH  071%=      5-min Rain = 0
KRO1 111000Z 17011KT 23/17 A3007 RMK A01 T02260171  RH  071%=      5-min Rain = 0
KRO1 111001Z 16011KT 23/17 A3007 RMK A01 T02260171  RH  071%=      5-min Rain = 0
KRO1 111002Z 17011KT 23/17 A3007 RMK A01 T02260171  RH  071%=      5-min Rain = 0
KRO1 111003Z 17012KT 23/17 A3007 RMK A01 T02250171  RH  071%=      5-min Rain = 0
KRO1 111004Z 16011KT 23/17 A3007 RMK A01 T02260171  RH  071%=      5-min Rain = 0
KRO1 111005Z 17011KT 23/17 A3007 RMK A01 T02260171  RH  071%=      5-min Rain = 0
KRO1 111006Z 16011KT 23/17 A3007 RMK A01 T02260171  RH  071%=      5-min Rain = 0
KRO1 111007Z 16011KT 23/17 A3007 RMK A01 T02260171  RH  071%=      5-min Rain = 0
KRO1 111008Z 17011KT 23/17 A3007 RMK A01 T02260172  RH  071%=      5-min Rain = 0
KRO1 111009Z 17012KT 23/17 A3007 RMK A01 T02260172  RH  071%=      5-min Rain = 0
KRO1 111010Z 17011KT 23/17 A3007 RMK A01 T02260172  RH  071%=      5-min Rain = 0
KRO1 111011Z 16010KT 23/17 A3007 RMK A01 T02260172  RH  071%=      5-min Rain = 0
KRO1 111012Z 17012KT 23/17 A3007 RMK A01 T02260172  RH  072%=      5-min Rain = 0
KRO1 111013Z 16011KT 23/17 A3007 RMK A01 T02260173  RH  072%=      5-min Rain = 0
KRO1 111014Z 17013KT 23/17 A3007 RMK A01 T02260173  RH  072%=      5-min Rain = 0
KRO1 111015Z 17012KT 23/17 A3007 RMK A01 T02260173  RH  072%=      5-min Rain = 0
KRO1 111016Z 17011KT 23/17 A3007 RMK A01 T02260173  RH  072%=      5-min Rain = 0
KRO1 111017Z 17012KT 23/17 A3007 RMK A01 T02260172  RH  072%=      5-min Rain = 0
KRO1 111018Z 17011KT 23/17 A3007 RMK A01 T02260173  RH  072%=      5-min Rain = 0
KRO1 111019Z 17011KT 23/17 A3007 RMK A01 T02260173  RH  072%=      5-min Rain = 0
KRO1 111020Z 16011KT 23/17 A3007 RMK A01 T02260173  RH  072%=      5-min Rain = 0
KRO1 111021Z 17014KT 23/17 A3007 RMK A01 T02250173  RH  072%=      5-min Rain = 0
KRO1 111022Z 17012KT 23/17 A3007 RMK A01 T02250173  RH  072%=      5-min Rain = 0
KRO1 111023Z 17011KT 23/17 A3007 RMK A01 T02260174  RH  073%=      5-min Rain = 0
KRO1 111024Z 17013KT 23/17 A3007 RMK A01 T02260174  RH  073%=      5-min Rain = 0
KRO1 111025Z 16014KT 23/17 A3007 RMK A01 T02260174  RH  073%=      5-min Rain = 0
KRO1 111026Z 17012KT 23/17 A3007 RMK A01 T02260174  RH  073%=      5-min Rain = 0
KRO1 111027Z 16011KT 23/17 A3007 RMK A01 T02250174  RH  073%=      5-min Rain = 0
KRO1 111028Z 17013KT 23/17 A3007 RMK A01 T02260174  RH  073%=      5-min Rain = 0
KRO1 111029Z 17012KT 23/18 A3007 RMK A01 T02260175  RH  073%=      5-min Rain = 0
KRO1 111030Z 17012KT 23/18 A3007 RMK A01 T02260176  RH  073%=      5-min Rain = 0
KRO1 111031Z 16014KT 23/18 A3007 RMK A01 T02250175  RH  073%=      5-min Rain = 0
KRO1 111032Z 17012KT 23/18 A3007 RMK A01 T02250176  RH  073%=      5-min Rain = 0
KRO1 111033Z 17012G17KT 23/18 A3007 RMK A01 T02250175  RH  073%=      5-min Rain = 0
KRO1 111034Z 16013KT 23/18 A3007 RMK A01 T02250176  RH  074%=      5-min Rain = 0
KRO1 111035Z 17012KT 23/18 A3007 RMK A01 T02250176  RH  074%=      5-min Rain = 0
KRO1 111036Z 17014KT 23/18 A3007 RMK A01 T02250176  RH  074%=      5-min Rain = 0
KRO1 111037Z 17011KT 23/18 A3007 RMK A01 T02250176  RH  074%=      5-min Rain = 0
KRO1 111038Z 17012KT 23/18 A3007 RMK A01 T02250176  RH  074%=      5-min Rain = 0
KRO1 111039Z 16013KT 23/18 A3007 RMK A01 T02250176  RH  074%=      5-min Rain = 0
KRO1 111040Z 16012KT 23/18 A3007 RMK A01 T02250177  RH  074%=      5-min Rain = 0
KRO1 111041Z 17010KT 23/18 A3007 RMK A01 T02250176  RH  074%=      5-min Rain = 0
KRO1 111042Z 17010KT 22/18 A3007 RMK A01 T02240176  RH  074%=      5-min Rain = 0
KRO1 111043Z 16012KT 22/18 A3007 RMK A01 T02240176  RH  074%=      5-min Rain = 0
KRO1 111044Z 17015KT 22/18 A3007 RMK A01 T02240177  RH  075%=      5-min Rain = 0
KRO1 111045Z 16013KT 22/18 A3007 RMK A01 T02240177  RH  075%=      5-min Rain = 0
KRO1 111046Z 16015KT 22/18 A3007 RMK A01 T02240177  RH  075%=      5-min Rain = 0
KRO1 111047Z 17013KT 23/18 A3007 RMK A01 T02250178  RH  075%=      5-min Rain = 0
KRO1 111048Z 17015KT 23/18 A3007 RMK A01 T02250178  RH  075%=      5-min Rain = 0
KRO1 111049Z 16015KT 23/18 A3007 RMK A01 T02250178  RH  075%=      5-min Rain = 0
KRO1 111050Z 16017KT 23/18 A3007 RMK A01 T02250178  RH  075%=      5-min Rain = 0
KRO1 111051Z 16014KT 23/18 A3007 RMK A01 T02250178  RH  075%=      5-min Rain = 0
KRO1 111052Z 16015KT 23/18 A3007 RMK A01 T02250178  RH  075%=      5-min Rain = 0
KRO1 111053Z 17012KT 23/18 A3007 RMK A01 T02250178  RH  075%=      5-min Rain = 0
KRO1 111054Z 16013KT 23/18 A3007 RMK A01 T02250178  RH  075%=      5-min Rain = 0
KRO1 111055Z 16013KT 22/18 A3007 RMK A01 T02240178  RH  075%=      5-min Rain = 0
KRO1 111056Z 16013KT 22/18 A3007 RMK A01 T02240178  RH  075%=      5-min Rain = 0
KRO1 111057Z 17012KT 22/18 A3007 RMK A01 T02240178  RH  075%=      5-min Rain = 0
KRO1 111058Z 17012KT 22/18 A3007 RMK A01 T02240178  RH  075%=      5-min Rain = 0
KRO1 111059Z 16012KT 22/18 A3007 RMK A01 T02240178  RH  075%=      5-min Rain = 0
KRO1 111100Z 16011KT 22/18 A3007 RMK A01 T02240179  RH  075%=      5-min Rain = 0
KRO1 111101Z 16010KT 22/18 A3007 RMK A01 T02230178  RH  076%=      5-min Rain = 0
KRO1 111102Z 16011KT 22/18 A3007 RMK A01 T02230178  RH  076%=      5-min Rain = 0
KRO1 111103Z 15011KT 22/18 A3007 RMK A01 T02230178  RH  076%=      5-min Rain = 0
KRO1 111104Z 15010KT 22/18 A3007 RMK A01 T02230179  RH  076%=      5-min Rain = 0
KRO1 111105Z 16011KT 22/18 A3007 RMK A01 T02220178  RH  076%=      5-min Rain = 0
KRO1 111106Z 16010KT 22/18 A3007 RMK A01 T02220178  RH  076%=      5-min Rain = 0
KRO1 111107Z 16009KT 22/18 A3007 RMK A01 T02220178  RH  076%=      5-min Rain = 0
KRO1 111108Z 16009KT 22/18 A3007 RMK A01 T02220178  RH  076%=      5-min Rain = 0
KRO1 111109Z 16009KT 22/18 A3007 RMK A01 T02210178  RH  077%=      5-min Rain = 0
KRO1 111110Z 16010KT 22/18 A3007 RMK A01 T02210178  RH  077%=      5-min Rain = 0
KRO1 111111Z 16009KT 22/18 A3007 RMK A01 T02210179  RH  077%=      5-min Rain = 0
KRO1 111112Z 15009KT 22/18 A3007 RMK A01 T02210178  RH  077%=      5-min Rain = 0
KRO1 111113Z 15009KT 22/18 A3007 RMK A01 T02210178  RH  077%=      5-min Rain = 0
KRO1 111114Z 16009KT 22/18 A3007 RMK A01 T02200178  RH  077%=      5-min Rain = 0
KRO1 111115Z 15010KT 22/18 A3007 RMK A01 T02200178  RH  077%=      5-min Rain = 0
KRO1 111116Z 15008KT 22/18 A3007 RMK A01 T02200178  RH  077%=      5-min Rain = 0
KRO1 111117Z 15011KT 22/18 A3007 RMK A01 T02200178  RH  077%=      5-min Rain = 0
KRO1 111118Z 15010KT 22/18 A3007 RMK A01 T02190178  RH  077%=      5-min Rain = 0
KRO1 111119Z 15009KT 22/18 A3007 RMK A01 T02190178  RH  077%=      5-min Rain = 0
KRO1 111120Z 16010KT 22/18 A3007 RMK A01 T02190178  RH  077%=      5-min Rain = 0
KRO1 111121Z 16009KT 22/18 A3007 RMK A01 T02190178  RH  077%=      5-min Rain = 0
KRO1 111122Z 16010KT 22/18 A3007 RMK A01 T02190178  RH  077%=      5-min Rain = 0
KRO1 111123Z 16010KT 22/18 A3007 RMK A01 T02190178  RH  077%=      5-min Rain = 0
KRO1 111124Z 16011KT 22/18 A3007 RMK A01 T02190178  RH  077%=      5-min Rain = 0
KRO1 111125Z 17012KT 22/18 A3007 RMK A01 T02190178  RH  078%=      5-min Rain = 0
KRO1 111126Z 16011KT 22/18 A3007 RMK A01 T02200179  RH  077%=      5-min Rain = 0
KRO1 111127Z 16010KT 22/18 A3007 RMK A01 T02200179  RH  077%=      5-min Rain = 0
KRO1 111128Z 17012KT 22/18 A3007 RMK A01 T02200179  RH  077%=      5-min Rain = 0
KRO1 111129Z 17012KT 22/18 A3007 RMK A01 T02200179  RH  077%=      5-min Rain = 0
KRO1 111130Z 17013KT 22/18 A3007 RMK A01 T02210179  RH  077%=      5-min Rain = 0
KRO1 111131Z 17011KT 22/18 A3006 RMK A01 T02210180  RH  077%=      5-min Rain = 0
KRO1 111132Z 17011KT 22/18 A3006 RMK A01 T02210180  RH  078%=      5-min Rain = 0
KRO1 111133Z 17011KT 22/18 A3007 RMK A01 T02210180  RH  078%=      5-min Rain = 0
KRO1 111134Z 16010KT 22/18 A3007 RMK A01 T02210180  RH  078%=      5-min Rain = 0
KRO1 111135Z 16010KT 22/18 A3007 RMK A01 T02210180  RH  078%=      5-min Rain = 0
KRO1 111136Z 16011KT 22/18 A3007 RMK A01 T02210180  RH  078%=      5-min Rain = 0
KRO1 111137Z 16010KT 22/18 A3007 RMK A01 T02210180  RH  078%=      5-min Rain = 0
KRO1 111138Z 16009KT 22/18 A3007 RMK A01 T02210180  RH  078%=      5-min Rain = 0
KRO1 111139Z 16010KT 22/18 A3007 RMK A01 T02200180  RH  078%=      5-min Rain = 0
KRO1 111140Z 17010KT 22/18 A3007 RMK A01 T02200180  RH  078%=      5-min Rain = 0
KRO1 111141Z 17010KT 22/18 A3007 RMK A01 T02200181  RH  078%=      5-min Rain = 0
KRO1 111142Z 17009KT 22/18 A3007 RMK A01 T02200180  RH  078%=      5-min Rain = 0
KRO1 111143Z 17008KT 22/18 A3007 RMK A01 T02200180  RH  078%=      5-min Rain = 0
KRO1 111144Z 17010KT 22/18 A3007 RMK A01 T02200181  RH  078%=      5-min Rain = 0
KRO1 111145Z 16008KT 22/18 A3007 RMK A01 T02200181  RH  078%=      5-min Rain = 0
KRO1 111146Z 17010KT 22/18 A3007 RMK A01 T02200181  RH  079%=      5-min Rain = 0
KRO1 111147Z 17010KT 22/18 A3007 RMK A01 T02200181  RH  079%=      5-min Rain = 0
KRO1 111148Z 16008KT 22/18 A3007 RMK A01 T02200181  RH  079%=      5-min Rain = 0
KRO1 111149Z 16009KT 22/18 A3007 RMK A01 T02200181  RH  079%=      5-min Rain = 0
KRO1 111150Z 16009KT 22/18 A3007 RMK A01 T02190181  RH  079%=      5-min Rain = 0
KRO1 111151Z 16009KT 22/18 A3007 RMK A01 T02190181  RH  079%=      5-min Rain = 0
KRO1 111152Z 16008KT 22/18 A3007 RMK A01 T02190181  RH  079%=      5-min Rain = 0
KRO1 111153Z 16009KT 22/18 A3007 RMK A01 T02190181  RH  079%=      5-min Rain = 0
KRO1 111154Z 16008KT 22/18 A3007 RMK A01 T02190181  RH  079%=      5-min Rain = 0
KRO1 111155Z 16009KT 22/18 A3007 RMK A01 T02190181  RH  079%=      5-min Rain = 0
KRO1 111156Z 16009KT 22/18 A3007 RMK A01 T02190181  RH  079%=      5-min Rain = 0
KRO1 111157Z 16009KT 22/18 A3007 RMK A01 T02190181  RH  079%=      5-min Rain = 0
KRO1 111158Z 16007KT 22/18 A3007 RMK A01 T02190181  RH  079%=      5-min Rain = 0
KRO1 111159Z 16008KT 22/18 A3007 RMK A01 T02180181  RH  079%=      5-min Rain = 0
KRO1 111200Z 16008KT 22/18 A3008 RMK A01 T02180181  RH  079%=      5-min Rain = 0
KRO1 111201Z 16008KT 22/18 A3008 RMK A01 T02180181  RH  079%=      5-min Rain = 0
KRO1 111202Z 15007KT 22/18 A3008 RMK A01 T02180181  RH  080%=      5-min Rain = 0
KRO1 111203Z 15007KT 22/18 A3008 RMK A01 T02170181  RH  080%=      5-min Rain = 0
KRO1 111204Z 15007KT 22/18 A3008 RMK A01 T02170181  RH  080%=      5-min Rain = 0
KRO1 111205Z 15007KT 22/18 A3008 RMK A01 T02170181  RH  080%=      5-min Rain = 0
KRO1 111206Z 15007KT 22/18 A3008 RMK A01 T02170181  RH  080%=      5-min Rain = 0
KRO1 111207Z 15007KT 22/18 A3008 RMK A01 T02160181  RH  080%=      5-min Rain = 0
KRO1 111208Z 15006KT 22/18 A3008 RMK A01 T02160180  RH  080%=      5-min Rain = 0
KRO1 111209Z 15007KT 22/18 A3008 RMK A01 T02150181  RH  081%=      5-min Rain = 0
KRO1 111210Z 15006KT 22/18 A3008 RMK A01 T02150180  RH  081%=      5-min Rain = 0
KRO1 111211Z 15006KT 22/18 A3008 RMK A01 T02150180  RH  081%=      5-min Rain = 0
KRO1 111212Z 15007KT 22/18 A3008 RMK A01 T02150180  RH  081%=      5-min Rain = 0
KRO1 111213Z 15005KT 21/18 A3008 RMK A01 T02140180  RH  081%=      5-min Rain = 0
KRO1 111214Z 15006KT 21/18 A3008 RMK A01 T02140180  RH  081%=      5-min Rain = 0
KRO1 111215Z 15006KT 21/18 A3008 RMK A01 T02140180  RH  081%=      5-min Rain = 0
KRO1 111216Z 15006KT 21/18 A3008 RMK A01 T02140180  RH  081%=      5-min Rain = 0
KRO1 111217Z 15006KT 21/18 A3008 RMK A01 T02130180  RH  081%=      5-min Rain = 0
KRO1 111218Z 15006KT 21/18 A3008 RMK A01 T02140180  RH  081%=      5-min Rain = 0
KRO1 111219Z 15006KT 21/18 A3008 RMK A01 T02130180  RH  082%=      5-min Rain = 0
KRO1 111220Z 15006KT 21/18 A3008 RMK A01 T02130181  RH  082%=      5-min Rain = 0
KRO1 111221Z 14007KT 21/18 A3008 RMK A01 T02130180  RH  082%=      5-min Rain = 0
KRO1 111222Z 14006KT 21/18 A3009 RMK A01 T02130181  RH  082%=      5-min Rain = 0
KRO1 111223Z 14007KT 21/18 A3009 RMK A01 T02130181  RH  082%=      5-min Rain = 0
KRO1 111224Z 14006KT 21/18 A3009 RMK A01 T02130181  RH  082%=      5-min Rain = 0
KRO1 111225Z 13005KT 21/18 A3009 RMK A01 T02130181  RH  082%=      5-min Rain = 0
KRO1 111226Z 14006KT 21/18 A3009 RMK A01 T02130181  RH  082%=      5-min Rain = 0
KRO1 111227Z 14006KT 21/18 A3009 RMK A01 T02130180  RH  082%=      5-min Rain = 0
KRO1 111228Z 13006KT 21/18 A3009 RMK A01 T02130181  RH  082%=      5-min Rain = 0
KRO1 111229Z 13005KT 21/18 A3009 RMK A01 T02140181  RH  082%=      5-min Rain = 0
KRO1 111230Z 13006KT 21/18 A3009 RMK A01 T02130180  RH  081%=      5-min Rain = 0
KRO1 111231Z 13006KT 21/18 A3009 RMK A01 T02130180  RH  081%=      5-min Rain = 0
KRO1 111232Z 13006KT 21/18 A3009 RMK A01 T02140181  RH  081%=      5-min Rain = 0
KRO1 111233Z 13007KT 21/18 A3009 RMK A01 T02140180  RH  081%=      5-min Rain = 0
KRO1 111234Z 13007KT 21/18 A3009 RMK A01 T02140180  RH  081%=      5-min Rain = 0
KRO1 111235Z 14006KT 21/18 A3009 RMK A01 T02140180  RH  081%=      5-min Rain = 0
KRO1 111236Z 14006KT 21/18 A3009 RMK A01 T02140180  RH  081%=      5-min Rain = 0
KRO1 111237Z 14006KT 21/18 A3009 RMK A01 T02140180  RH  081%=      5-min Rain = 0
KRO1 111238Z 15005KT 21/18 A3009 RMK A01 T02140180  RH  081%=      5-min Rain = 0
KRO1 111239Z 14007KT 21/18 A3009 RMK A01 T02140180  RH  081%=      5-min Rain = 0
KRO1 111240Z 15007KT 21/18 A3009 RMK A01 T02140180  RH  081%=      5-min Rain = 0
KRO1 111241Z 14006KT 21/18 A3009 RMK A01 T02140180  RH  081%=      5-min Rain = 0
KRO1 111242Z 14006KT 21/18 A3009 RMK A01 T02140179  RH  081%=      5-min Rain = 0
KRO1 111243Z 14006KT 21/18 A3009 RMK A01 T02140179  RH  081%=      5-min Rain = 0
KRO1 111244Z 14007KT 21/18 A3009 RMK A01 T02140179  RH  081%=      5-min Rain = 0
KRO1 111245Z 14007KT 22/18 A3009 RMK A01 T02150180  RH  080%=      5-min Rain = 0
KRO1 111246Z 14007KT 22/18 A3009 RMK A01 T02150180  RH  080%=      5-min Rain = 0
KRO1 111247Z 14007KT 22/18 A3009 RMK A01 T02150180  RH  080%=      5-min Rain = 0
KRO1 111248Z 14008KT 22/18 A3009 RMK A01 T02150180  RH  080%=      5-min Rain = 0
KRO1 111249Z 14007KT 22/18 A3009 RMK A01 T02160180  RH  080%=      5-min Rain = 0
KRO1 111250Z 14006KT 22/18 A3009 RMK A01 T02160180  RH  080%=      5-min Rain = 0
KRO1 111251Z 14007KT 22/18 A3009 RMK A01 T02160180  RH  080%=      5-min Rain = 0
KRO1 111252Z 15007KT 22/18 A3009 RMK A01 T02170180  RH  080%=      5-min Rain = 0
KRO1 111253Z 15007KT 22/18 A301 RMK A01 T02170180  RH  080%=      5-min Rain = 0
KRO1 111254Z 15008KT 22/18 A301 RMK A01 T02170180  RH  079%=      5-min Rain = 0
KRO1 111255Z 15008KT 22/18 A301 RMK A01 T02170180  RH  079%=      5-min Rain = 0
KRO1 111256Z 14008KT 22/18 A301 RMK A01 T02180180  RH  079%=      5-min Rain = 0
KRO1 111257Z 15007KT 22/18 A301 RMK A01 T02180180  RH  079%=      5-min Rain = 0
KRO1 111258Z 15008KT 22/18 A301 RMK A01 T02180180  RH  079%=      5-min Rain = 0
KRO1 111259Z 14008KT 22/18 A301 RMK A01 T02190180  RH  079%=      5-min Rain = 0
KRO1 111300Z 15008KT 22/18 A301 RMK A01 T02190180  RH  079%=      5-min Rain = 0
KRO1 111301Z 15009KT 22/18 A301 RMK A01 T02190180  RH  079%=      5-min Rain = 0
KRO1 111302Z 15008KT 22/18 A301 RMK A01 T02190180  RH  079%=      5-min Rain = 0
KRO1 111303Z 15007KT 22/18 A301 RMK A01 T02190180  RH  079%=      5-min Rain = 0
KRO1 111304Z 15006KT 22/18 A301 RMK A01 T02190181  RH  079%=      5-min Rain = 0
KRO1 111305Z 15008KT 22/18 A301 RMK A01 T02190181  RH  079%=      5-min Rain = 0
KRO1 111306Z 15008KT 22/18 A301 RMK A01 T02190181  RH  079%=      5-min Rain = 0
KRO1 111307Z 15008KT 22/18 A301 RMK A01 T02190181  RH  079%=      5-min Rain = 0
KRO1 111308Z 15007KT 22/18 A301 RMK A01 T02190181  RH  079%=      5-min Rain = 0
KRO1 111309Z 15008KT 22/18 A301 RMK A01 T02190181  RH  079%=      5-min Rain = 0
KRO1 111310Z 15008KT 22/18 A301 RMK A01 T02200181  RH  079%=      5-min Rain = 0
KRO1 111311Z 15008KT 22/18 A301 RMK A01 T02200181  RH  078%=      5-min Rain = 0
KRO1 111312Z 15007KT 22/18 A301 RMK A01 T02210181  RH  078%=      5-min Rain = 0
KRO1 111313Z 15008KT 22/18 A301 RMK A01 T02210181  RH  078%=      5-min Rain = 0
KRO1 111314Z 15007KT 22/18 A301 RMK A01 T02220181  RH  078%=      5-min Rain = 0
KRO1 111315Z 15007KT 22/18 A301 RMK A01 T02230181  RH  077%=      5-min Rain = 0
KRO1 111316Z 15008KT 22/18 A301 RMK A01 T02230181  RH  077%=      5-min Rain = 0
KRO1 111317Z 15008KT 22/18 A301 RMK A01 T02230181  RH  077%=      5-min Rain = 0
KRO1 111318Z 16008KT 22/18 A301 RMK A01 T02240182  RH  077%=      5-min Rain = 0
KRO1 111319Z 16008KT 22/18 A301 RMK A01 T02240182  RH  077%=      5-min Rain = 0
KRO1 111320Z 16008KT 22/18 A301 RMK A01 T02240182  RH  077%=      5-min Rain = 0
KRO1 111321Z 16008KT 23/18 A301 RMK A01 T02250182  RH  077%=      5-min Rain = 0
KRO1 111322Z 16008KT 23/18 A301 RMK A01 T02250182  RH  077%=      5-min Rain = 0
KRO1 111323Z 16007KT 23/18 A301 RMK A01 T02250182  RH  076%=      5-min Rain = 0
KRO1 111324Z 17009KT 23/18 A301 RMK A01 T02260183  RH  076%=      5-min Rain = 0
KRO1 111325Z 16008KT 23/18 A301 RMK A01 T02270182  RH  076%=      5-min Rain = 0
KRO1 111326Z 16008KT 23/18 A301 RMK A01 T02270183  RH  076%=      5-min Rain = 0
KRO1 111327Z 17008KT 23/18 A301 RMK A01 T02280183  RH  076%=      5-min Rain = 0
KRO1 111328Z 16008KT 23/18 A301 RMK A01 T02290183  RH  075%=      5-min Rain = 0
KRO1 111329Z 16007KT 23/18 A301 RMK A01 T02290183  RH  075%=      5-min Rain = 0
KRO1 111330Z 16008KT 23/18 A301 RMK A01 T02300184  RH  075%=      5-min Rain = 0
KRO1 111331Z 16009KT 23/18 A301 RMK A01 T02310184  RH  075%=      5-min Rain = 0
KRO1 111332Z 16009KT 23/18 A301 RMK A01 T02310184  RH  075%=      5-min Rain = 0
KRO1 111333Z 17009KT 23/18 A301 RMK A01 T02320184  RH  074%=      5-min Rain = 0
KRO1 111334Z 16010KT 23/18 A301 RMK A01 T02320184  RH  075%=      5-min Rain = 0
KRO1 111335Z 17010KT 23/18 A3011 RMK A01 T02320184  RH  075%=      5-min Rain = 0
KRO1 111336Z 16009KT 23/19 A3011 RMK A01 T02310185  RH  075%=      5-min Rain = 0
KRO1 111337Z 16009KT 23/19 A3011 RMK A01 T02310185  RH  075%=      5-min Rain = 0
KRO1 111338Z 17009KT 23/19 A3011 RMK A01 T02310185  RH  075%=      5-min Rain = 0
KRO1 111339Z 16009KT 23/19 A3011 RMK A01 T02310185  RH  075%=      5-min Rain = 0
KRO1 111340Z 16009KT 23/19 A3011 RMK A01 T02310185  RH  075%=      5-min Rain = 0
KRO1 111341Z 16010KT 23/19 A3011 RMK A01 T02310185  RH  075%=      5-min Rain = 0
KRO1 111342Z 16010KT 23/19 A3011 RMK A01 T02310185  RH  075%=      5-min Rain = 0
KRO1 111343Z 17011KT 23/19 A3011 RMK A01 T02310185  RH  075%=      5-min Rain = 0
KRO1 111344Z 16009KT 23/19 A3011 RMK A01 T02310185  RH  075%=      5-min Rain = 0
KRO1 111345Z 16009KT 23/19 A3011 RMK A01 T02310185  RH  075%=      5-min Rain = 0
KRO1 111346Z 16009KT 23/19 A3011 RMK A01 T02310185  RH  075%=      5-min Rain = 0
KRO1 111347Z 16010KT 23/19 A3011 RMK A01 T02320185  RH  075%=      5-min Rain = 0
KRO1 111348Z 15009KT 23/19 A3011 RMK A01 T02330185  RH  074%=      5-min Rain = 0
KRO1 111349Z 16008KT 24/19 A3011 RMK A01 T02350186  RH  074%=      5-min Rain = 0
KRO1 111350Z 15010KT 24/19 A3011 RMK A01 T02360186  RH  073%=      5-min Rain = 0
KRO1 111351Z 15010KT 24/19 A3011 RMK A01 T02370186  RH  073%=      5-min Rain = 0
KRO1 111352Z 15010KT 24/19 A3011 RMK A01 T02380186  RH  073%=      5-min Rain = 0
KRO1 111353Z 15010KT 24/19 A3011 RMK A01 T02380186  RH  072%=      5-min Rain = 0
KRO1 111354Z 16010KT 24/19 A3011 RMK A01 T02390186  RH  072%=      5-min Rain = 0
KRO1 111355Z 16009KT 24/19 A3011 RMK A01 T02380186  RH  073%=      5-min Rain = 0
KRO1 111356Z 16010KT 24/19 A3011 RMK A01 T02390187  RH  072%=      5-min Rain = 0
KRO1 111357Z 15010KT 24/19 A3011 RMK A01 T02390186  RH  072%=      5-min Rain = 0
KRO1 111358Z 16009KT 24/19 A3011 RMK A01 T02390187  RH  073%=      5-min Rain = 0
KRO1 111359Z 17010KT 24/19 A3011 RMK A01 T02380187  RH  073%=      5-min Rain = 0
KRO1 111400Z 15010KT 24/19 A3011 RMK A01 T02380187  RH  073%=      5-min Rain = 0
KRO1 111401Z 16007KT 24/19 A3011 RMK A01 T02380187  RH  073%=      5-min Rain = 0
KRO1 111402Z 15007KT 24/19 A3011 RMK A01 T02380188  RH  073%=      5-min Rain = 0
KRO1 111403Z 15009KT 24/19 A3011 RMK A01 T02390188  RH  073%=      5-min Rain = 0
KRO1 111404Z 16011KT 24/19 A3011 RMK A01 T02390187  RH  073%=      5-min Rain = 0
KRO1 111405Z 15011KT 24/19 A3011 RMK A01 T02390188  RH  073%=      5-min Rain = 0
KRO1 111406Z 15009KT 24/19 A3011 RMK A01 T02380188  RH  073%=      5-min Rain = 0
KRO1 111407Z 15011KT 24/19 A3011 RMK A01 T02380188  RH  073%=      5-min Rain = 0
KRO1 111408Z 16011KT 24/19 A3011 RMK A01 T02390188  RH  073%=      5-min Rain = 0
KRO1 111409Z 15009KT 24/19 A3011 RMK A01 T02390188  RH  073%=      5-min Rain = 0
KRO1 111410Z 15009KT 24/19 A3011 RMK A01 T02400189  RH  073%=      5-min Rain = 0
KRO1 111411Z 16010KT 24/19 A3011 RMK A01 T02410189  RH  072%=      5-min Rain = 0
KRO1 111412Z 15010KT 24/19 A3011 RMK A01 T02430189  RH  072%=      5-min Rain = 0
KRO1 111413Z 15009KT 24/19 A3011 RMK A01 T02440189  RH  071%=      5-min Rain = 0
KRO1 111414Z 16009KT 25/19 A3011 RMK A01 T02450189  RH  071%=      5-min Rain = 0
KRO1 111415Z 17009KT 25/19 A3011 RMK A01 T02450190  RH  071%=      5-min Rain = 0
KRO1 111416Z 17012KT 25/19 A3011 RMK A01 T02460190  RH  071%=      5-min Rain = 0
KRO1 111417Z 16012KT 25/19 A3011 RMK A01 T02450190  RH  071%=      5-min Rain = 0
KRO1 111418Z 16012KT 25/19 A3011 RMK A01 T02450190  RH  071%=      5-min Rain = 0
KRO1 111419Z 15013KT 24/19 A3011 RMK A01 T02440190  RH  072%=      5-min Rain = 0
KRO1 111420Z 15012KT 24/19 A3011 RMK A01 T02440191  RH  072%=      5-min Rain = 0
KRO1 111421Z 15011KT 24/19 A3011 RMK A01 T02440191  RH  072%=      5-min Rain = 0
KRO1 111422Z 15012KT 24/19 A3011 RMK A01 T02440191  RH  072%=      5-min Rain = 0
KRO1 111423Z 16012KT 24/19 A3011 RMK A01 T02440190  RH  072%=      5-min Rain = 0
KRO1 111424Z 15011KT 24/19 A3011 RMK A01 T02440191  RH  072%=      5-min Rain = 0
KRO1 111425Z 16012KT 24/19 A3011 RMK A01 T02440191  RH  072%=      5-min Rain = 0
KRO1 111426Z 17011KT 25/19 A3011 RMK A01 T02450191  RH  072%=      5-min Rain = 0
KRO1 111427Z 16010KT 25/19 A3011 RMK A01 T02450192  RH  072%=      5-min Rain = 0
KRO1 111428Z 16010KT 25/19 A3011 RMK A01 T02460192  RH  072%=      5-min Rain = 0
KRO1 111429Z 16012KT 25/19 A3011 RMK A01 T02470192  RH  071%=      5-min Rain = 0
KRO1 111430Z 16013KT 25/19 A3011 RMK A01 T02470192  RH  071%=      5-min Rain = 0
KRO1 111431Z 16012KT 25/19 A3011 RMK A01 T02460192  RH  072%=      5-min Rain = 0
KRO1 111432Z 17012KT 25/19 A3011 RMK A01 T02460193  RH  072%=      5-min Rain = 0
KRO1 111433Z 16012KT 25/19 A3011 RMK A01 T02460193  RH  072%=      5-min Rain = 0
KRO1 111434Z 16012KT 25/19 A3011 RMK A01 T02470192  RH  072%=      5-min Rain = 0
KRO1 111435Z 16012KT 25/19 A3011 RMK A01 T02480193  RH  071%=      5-min Rain = 0
KRO1 111436Z 17013KT 25/19 A3011 RMK A01 T02490193  RH  071%=      5-min Rain = 0
KRO1 111437Z 16015KT 25/19 A3011 RMK A01 T02500193  RH  071%=      5-min Rain = 0
KRO1 111438Z 16012KT 25/19 A3011 RMK A01 T02510194  RH  070%=      5-min Rain = 0
KRO1 111439Z 16011KT 25/20 A3011 RMK A01 T02530195  RH  070%=      5-min Rain = 0
KRO1 111440Z 16012KT 26/20 A3011 RMK A01 T02550195  RH  069%=      5-min Rain = 0
KRO1 111441Z 16016KT 26/19 A3011 RMK A01 T02550194  RH  069%=      5-min Rain = 0
KRO1 111442Z 17013KT 25/19 A3011 RMK A01 T02540194  RH  069%=      5-min Rain = 0
KRO1 111443Z 16014KT 25/20 A3011 RMK A01 T02540195  RH  070%=      5-min Rain = 0
KRO1 111444Z 16013KT 26/19 A3011 RMK A01 T02550194  RH  069%=      5-min Rain = 0
KRO1 111445Z 16014KT 25/20 A3011 RMK A01 T02540195  RH  070%=      5-min Rain = 0
KRO1 111446Z 16012KT 26/20 A3011 RMK A01 T02550195  RH  069%=      5-min Rain = 0
KRO1 111447Z 18012KT 26/20 A3011 RMK A01 T02570195  RH  069%=      5-min Rain = 0
KRO1 111448Z 18013KT 26/20 A3011 RMK A01 T02570195  RH  069%=      5-min Rain = 0
KRO1 111449Z 17015KT 26/20 A3011 RMK A01 T02570195  RH  069%=      5-min Rain = 0
KRO1 111450Z 17012KT 26/20 A3011 RMK A01 T02570195  RH  069%=      5-min Rain = 0
KRO1 111451Z 16009KT 26/20 A3011 RMK A01 T02580197  RH  069%=      5-min Rain = 0
KRO1 111452Z 17014KT 26/20 A3011 RMK A01 T02600196  RH  068%=      5-min Rain = 0
KRO1 111453Z 17014KT 26/20 A3011 RMK A01 T02590196  RH  068%=      5-min Rain = 0
KRO1 111454Z 16014KT 26/20 A3011 RMK A01 T02570196  RH  069%=      5-min Rain = 0
KRO1 111455Z 16010KT 26/20 A3011 RMK A01 T02590197  RH  069%=      5-min Rain = 0
KRO1 111456Z 17011KT 26/20 A3011 RMK A01 T02630199  RH  068%=      5-min Rain = 0
KRO1 111457Z 17011KT 27/20 A3011 RMK A01 T02650198  RH  067%=      5-min Rain = 0
KRO1 111458Z 17013KT 27/20 A3011 RMK A01 T02670198  RH  066%=      5-min Rain = 0
KRO1 111459Z 17015KT 27/20 A3011 RMK A01 T02670197  RH  065%=      5-min Rain = 0
KRO1 111500Z 19014KT 27/20 A3011 RMK A01 T02660197  RH  066%=      5-min Rain = 0
KRO1 111501Z 18014KT 27/20 A3011 RMK A01 T02650197  RH  066%=      5-min Rain = 0
KRO1 111502Z 17013KT 26/20 A3011 RMK A01 T02640197  RH  066%=      5-min Rain = 0
KRO1 111503Z 16012KT 26/20 A3011 RMK A01 T02640196  RH  066%=      5-min Rain = 0
KRO1 111504Z 18014KT 27/20 A3011 RMK A01 T02650197  RH  066%=      5-min Rain = 0
KRO1 111505Z 16013KT 26/20 A3011 RMK A01 T02640197  RH  066%=      5-min Rain = 0
KRO1 111506Z 17016KT 26/20 A3011 RMK A01 T02640197  RH  066%=      5-min Rain = 0
KRO1 111507Z 17013KT 26/20 A3011 RMK A01 T02630196  RH  066%=      5-min Rain = 0
KRO1 111508Z 17015KT 26/20 A3011 RMK A01 T02620196  RH  067%=      5-min Rain = 0
KRO1 111509Z 17013KT 26/20 A3011 RMK A01 T02620196  RH  067%=      5-min Rain = 0
KRO1 111510Z 17018KT 26/20 A3012 RMK A01 T02640197  RH  067%=      5-min Rain = 0
KRO1 111511Z 17017KT 27/20 A3011 RMK A01 T02650196  RH  066%=      5-min Rain = 0
KRO1 111512Z 19015G20KT 26/20 A3011 RMK A01 T02640196  RH  066%=      5-min Rain = 0
KRO1 111513Z 18013KT 26/20 A3011 RMK A01 T02630196  RH  067%=      5-min Rain = 0
KRO1 111514Z 18015KT 26/20 A3011 RMK A01 T02630197  RH  067%=      5-min Rain = 0
KRO1 111515Z 16014KT 26/20 A3011 RMK A01 T02640197  RH  067%=      5-min Rain = 0
KRO1 111516Z 17017KT 26/20 A3011 RMK A01 T02640196  RH  066%=      5-min Rain = 0
KRO1 111517Z 17019KT 26/20 A3011 RMK A01 T02640195  RH  066%=      5-min Rain = 0
KRO1 111518Z 16014KT 26/20 A3011 RMK A01 T02620195  RH  067%=      5-min Rain = 0
KRO1 111519Z 17016KT 26/20 A3011 RMK A01 T02610196  RH  067%=      5-min Rain = 0
KRO1 111520Z 18013KT 26/20 A3011 RMK A01 T02610196  RH  067%=      5-min Rain = 0
KRO1 111521Z 17015KT 26/20 A3011 RMK A01 T02630196  RH  067%=      5-min Rain = 0
KRO1 111522Z 17014G19KT 26/20 A3011 RMK A01 T02640197  RH  067%=      5-min Rain = 0
KRO1 111523Z 17019KT 27/20 A3011 RMK A01 T02670197  RH  065%=      5-min Rain = 0
KRO1 111524Z 17017KT 27/20 A3011 RMK A01 T02670196  RH  065%=      5-min Rain = 0
KRO1 111525Z 17017G23KT 27/20 A3011 RMK A01 T02660196  RH  066%=      5-min Rain = 0
KRO1 111526Z 18017G22KT 27/20 A3011 RMK A01 T02650196  RH  065%=      5-min Rain = 0
KRO1 111527Z 19018KT 27/20 A3011 RMK A01 T02650196  RH  066%=      5-min Rain = 0
KRO1 111528Z 18019KT 27/20 A3011 RMK A01 T02660196  RH  066%=      5-min Rain = 0
KRO1 111529Z 18015KT 27/20 A3011 RMK A01 T02650196  RH  066%=      5-min Rain = 0
KRO1 111530Z 17013KT 26/20 A3011 RMK A01 T02640197  RH  066%=      5-min Rain = 0
KRO1 111531Z 17017G22KT 27/20 A3011 RMK A01 T02650197  RH  066%=      5-min Rain = 0
KRO1 111532Z 17015KT 27/20 A3011 RMK A01 T02660196  RH  065%=      5-min Rain = 0
KRO1 111533Z 17017KT 27/20 A3011 RMK A01 T02660196  RH  066%=      5-min Rain = 0
KRO1 111534Z 16017KT 27/20 A3011 RMK A01 T02660197  RH  066%=      5-min Rain = 0
KRO1 111535Z 16019KT 27/20 A3011 RMK A01 T02660196  RH  065%=      5-min Rain = 0
KRO1 111536Z 17016KT 27/20 A3011 RMK A01 T02660196  RH  065%=      5-min Rain = 0
KRO1 111537Z 16020G26KT 27/20 A3011 RMK A01 T02660196  RH  065%=      5-min Rain = 0
KRO1 111538Z 17018KT 27/20 A3011 RMK A01 T02660196  RH  065%=      5-min Rain = 0
KRO1 111539Z 18015G20KT 27/20 A3011 RMK A01 T02690198  RH  065%=      5-min Rain = 0
KRO1 111540Z 17020KT 27/20 A3011 RMK A01 T02720197  RH  063%=      5-min Rain = 0
KRO1 111541Z 17017G22KT 27/20 A3011 RMK A01 T02720197  RH  063%=      5-min Rain = 0
KRO1 111542Z 16019KT 27/20 A3011 RMK A01 T02710196  RH  064%=      5-min Rain = 0
KRO1 111543Z 17017KT 27/20 A3011 RMK A01 T02690196  RH  064%=      5-min Rain = 0
KRO1 111544Z 18016KT 27/20 A3011 RMK A01 T02690196  RH  064%=      5-min Rain = 0
KRO1 111545Z 18014KT 27/20 A3011 RMK A01 T02690197  RH  065%=      5-min Rain = 0
KRO1 111546Z 18016KT 27/20 A3011 RMK A01 T02700197  RH  065%=      5-min Rain = 0
KRO1 111547Z 18017G22KT 27/20 A3011 RMK A01 T02700196  RH  064%=      5-min Rain = 0
KRO1 111548Z 17019KT 27/20 A3011 RMK A01 T02690196  RH  064%=      5-min Rain = 0
KRO1 111549Z 17018KT 27/20 A3011 RMK A01 T02680196  RH  065%=      5-min Rain = 0
KRO1 111550Z 18017KT 27/20 A3011 RMK A01 T02680196  RH  065%=      5-min Rain = 0
KRO1 111551Z 18016KT 27/20 A3011 RMK A01 T02680196  RH  065%=      5-min Rain = 0
KRO1 111552Z 18014KT 27/20 A3011 RMK A01 T02690198  RH  065%=      5-min Rain = 0
KRO1 111553Z 18014G20KT 27/20 A3011 RMK A01 T02690197  RH  065%=      5-min Rain = 0
KRO1 111554Z 17018KT 27/20 A3011 RMK A01 T02690197  RH  065%=      5-min Rain = 0
KRO1 111555Z 16018KT 27/20 A3011 RMK A01 T02680196  RH  065%=      5-min Rain = 0
KRO1 111556Z 17018KT 27/20 A3011 RMK A01 T02680196  RH  065%=      5-min Rain = 0
KRO1 111557Z 17019KT 27/20 A3011 RMK A01 T02670196  RH  065%=      5-min Rain = 0
KRO1 111558Z 16020KT 27/20 A3011 RMK A01 T02670196  RH  065%=      5-min Rain = 0
KRO1 111559Z 16020KT 27/20 A3011 RMK A01 T02670195  RH  065%=      5-min Rain = 0
KRO1 111600Z 17015KT 27/20 A3012 RMK A01 T02660196  RH  065%=      5-min Rain = 0
KRO1 111601Z 16015G20KT 27/20 A3012 RMK A01 T02660196  RH  065%=      5-min Rain = 0
KRO1 111602Z 16017KT 27/20 A3012 RMK A01 T02670195  RH  065%=      5-min Rain = 0
KRO1 111603Z 17015KT 27/20 A3012 RMK A01 T02680196  RH  065%=      5-min Rain = 0
KRO1 111604Z 17015G20KT 27/20 A3012 RMK A01 T02680196  RH  065%=      5-min Rain = 0
KRO1 111605Z 18018KT 27/20 A3012 RMK A01 T02690196  RH  064%=      5-min Rain = 0
KRO1 111606Z 18017KT 27/20 A3012 RMK A01 T02690196  RH  064%=      5-min Rain = 0
KRO1 111607Z 17015G21KT 27/20 A3012 RMK A01 T02680197  RH  065%=      5-min Rain = 0
KRO1 111608Z 17017KT 27/20 A3012 RMK A01 T02680196  RH  065%=      5-min Rain = 0
KRO1 111609Z 17018KT 27/20 A3012 RMK A01 T02680196  RH  065%=      5-min Rain = 0
KRO1 111610Z 16019KT 27/20 A3012 RMK A01 T02670195  RH  065%=      5-min Rain = 0
KRO1 111611Z 17015KT 27/20 A3012 RMK A01 T02670195  RH  065%=      5-min Rain = 0
KRO1 111612Z 17018KT 27/20 A3012 RMK A01 T02670195  RH  065%=      5-min Rain = 0
KRO1 111613Z 16017KT 27/20 A3012 RMK A01 T02680195  RH  064%=      5-min Rain = 0
KRO1 111614Z 16019KT 27/20 A3011 RMK A01 T02690196  RH  064%=      5-min Rain = 0
KRO1 111615Z 18018KT 27/20 A3011 RMK A01 T02690195  RH  064%=      5-min Rain = 0
KRO1 111616Z 19018KT 27/20 A3011 RMK A01 T02700195  RH  064%=      5-min Rain = 0
KRO1 111617Z 18015KT 27/20 A3012 RMK A01 T02700195  RH  064%=      5-min Rain = 0
KRO1 111618Z 17018KT 27/20 A3012 RMK A01 T02710196  RH  064%=      5-min Rain = 0
KRO1 111619Z 18016KT 27/20 A3012 RMK A01 T02710195  RH  063%=      5-min Rain = 0
KRO1 111620Z 18015G20KT 27/20 A3012 RMK A01 T02710196  RH  064%=      5-min Rain = 0
KRO1 111621Z 18015KT 27/20 A3012 RMK A01 T02710195  RH  063%=      5-min Rain = 0
KRO1 111622Z 19015G20KT 27/20 A3012 RMK A01 T02710197  RH  064%=      5-min Rain = 0
KRO1 111623Z 18015KT 27/20 A3012 RMK A01 T02720197  RH  063%=      5-min Rain = 0
KRO1 111624Z 19015KT 27/20 A3012 RMK A01 T02720196  RH  063%=      5-min Rain = 0
KRO1 111625Z 18017KT 27/20 A3012 RMK A01 T02710197  RH  064%=      5-min Rain = 0
KRO1 111626Z 17017G23KT 27/20 A3012 RMK A01 T02710196  RH  064%=      5-min Rain = 0
KRO1 111627Z 18018KT 27/20 A3012 RMK A01 T02700195  RH  063%=      5-min Rain = 0
KRO1 111628Z 17016KT 27/20 A3012 RMK A01 T02710196  RH  063%=      5-min Rain = 0
KRO1 111629Z 17018KT 27/20 A3012 RMK A01 T02730196  RH  063%=      5-min Rain = 0
KRO1 111630Z 17021KT 27/20 A3011 RMK A01 T02740195  RH  062%=      5-min Rain = 0
KRO1 111631Z 18018KT 27/20 A3011 RMK A01 T02740195  RH  062%=      5-min Rain = 0
KRO1 111632Z 17018KT 28/20 A3011 RMK A01 T02750196  RH  062%=      5-min Rain = 0
KRO1 111633Z 17018KT 28/20 A3011 RMK A01 T02750195  RH  062%=      5-min Rain = 0
KRO1 111634Z 18019KT 27/20 A3011 RMK A01 T02740196  RH  062%=      5-min Rain = 0
KRO1 111635Z 18017KT 27/20 A3011 RMK A01 T02740196  RH  062%=      5-min Rain = 0
KRO1 111636Z 17013KT 28/20 A3011 RMK A01 T02750196  RH  062%=      5-min Rain = 0
KRO1 111637Z 18019G24KT 28/20 A3011 RMK A01 T02780196  RH  061%=      5-min Rain = 0
KRO1 111638Z 17016KT 28/20 A3011 RMK A01 T02800196  RH  060%=      5-min Rain = 0
KRO1 111639Z 17019KT 28/20 A3011 RMK A01 T02800196  RH  060%=      5-min Rain = 0
KRO1 111640Z 17019KT 28/19 A3011 RMK A01 T02790194  RH  060%=      5-min Rain = 0
KRO1 111641Z 17019KT 28/20 A3011 RMK A01 T02800195  RH  060%=      5-min Rain = 0
KRO1 111642Z 17018KT 28/20 A3011 RMK A01 T02820196  RH  060%=      5-min Rain = 0
KRO1 111643Z 17019KT 28/20 A3011 RMK A01 T02830196  RH  059%=      5-min Rain = 0
KRO1 111644Z 18017KT 28/20 A3011 RMK A01 T02830197  RH  059%=      5-min Rain = 0
KRO1 111645Z 18015KT 28/20 A3011 RMK A01 T02840197  RH  059%=      5-min Rain = 0
KRO1 111646Z 18017G22KT 28/20 A3011 RMK A01 T02820196  RH  060%=      5-min Rain = 0
KRO1 111647Z 18020KT 28/20 A3011 RMK A01 T02810196  RH  060%=      5-min Rain = 0
KRO1 111648Z 18019KT 28/20 A3011 RMK A01 T02810197  RH  060%=      5-min Rain = 0
KRO1 111649Z 18018KT 28/20 A3011 RMK A01 T02800196  RH  060%=      5-min Rain = 0
KRO1 111650Z 18016KT 28/20 A3011 RMK A01 T02810197  RH  060%=      5-min Rain = 0
KRO1 111651Z 18015KT 28/20 A3011 RMK A01 T02810197  RH  060%=      5-min Rain = 0
KRO1 111652Z 19017KT 28/20 A3011 RMK A01 T02810197  RH  060%=      5-min Rain = 0
KRO1 111653Z 18018KT 28/20 A3011 RMK A01 T02800197  RH  060%=      5-min Rain = 0
KRO1 111654Z 18018KT 28/20 A3011 RMK A01 T02810196  RH  060%=      5-min Rain = 0
KRO1 111655Z 19020KT 28/20 A3011 RMK A01 T02810196  RH  060%=      5-min Rain = 0
KRO1 111656Z 18020KT 28/20 A3011 RMK A01 T02810195  RH  059%=      5-min Rain = 0
KRO1 111657Z 18019KT 28/20 A3011 RMK A01 T02810195  RH  059%=      5-min Rain = 0
KRO1 111658Z 18018KT 28/20 A3011 RMK A01 T02810196  RH  060%=      5-min Rain = 0
KRO1 111659Z 18017KT 28/20 A3011 RMK A01 T02810195  RH  060%=      5-min Rain = 0
KRO1 111700Z 18016G21KT 28/20 A3011 RMK A01 T02800196  RH  060%=      5-min Rain = 0
KRO1 111701Z 19017KT 28/20 A3011 RMK A01 T02810197  RH  060%=      5-min Rain = 0
KRO1 111702Z 17016G21KT 29/20 A3011 RMK A01 T02870200  RH  059%=      5-min Rain = 0
KRO1 111703Z 17017G22KT 29/20 A3011 RMK A01 T02900198  RH  057%=      5-min Rain = 0
KRO1 111704Z 16017KT 29/20 A3011 RMK A01 T02880198  RH  058%=      5-min Rain = 0
KRO1 111705Z 17018KT 29/20 A3011 RMK A01 T02860198  RH  059%=      5-min Rain = 0
KRO1 111706Z 17018KT 29/20 A3011 RMK A01 T02850197  RH  059%=      5-min Rain = 0
KRO1 111707Z 16016KT 29/20 A3011 RMK A01 T02850197  RH  059%=      5-min Rain = 0
KRO1 111708Z 16016KT 29/20 A3011 RMK A01 T02850196  RH  059%=      5-min Rain = 0
KRO1 111709Z 16015KT 29/20 A3011 RMK A01 T02850197  RH  059%=      5-min Rain = 0
KRO1 111710Z 18019KT 29/20 A3011 RMK A01 T02860196  RH  058%=      5-min Rain = 0
KRO1 111711Z 18020KT 29/20 A301 RMK A01 T02850196  RH  059%=      5-min Rain = 0
KRO1 111712Z 18016KT 29/20 A3011 RMK A01 T02850195  RH  058%=      5-min Rain = 0
KRO1 111713Z 18017KT 28/20 A301 RMK A01 T02840195  RH  059%=      5-min Rain = 0
KRO1 111714Z 19017KT 28/20 A301 RMK A01 T02830196  RH  059%=      5-min Rain = 0
KRO1 111715Z 19017G23KT 28/20 A301 RMK A01 T02830196  RH  059%=      5-min Rain = 0
KRO1 111716Z 19018KT 28/19 A301 RMK A01 T02830193  RH  058%=      5-min Rain = 0
KRO1 111717Z 19017G22KT 28/19 A301 RMK A01 T02820194  RH  059%=      5-min Rain = 0
KRO1 111718Z 18014G19KT 28/19 A301 RMK A01 T02820194  RH  059%=      5-min Rain = 0
KRO1 111719Z 17016KT 28/20 A301 RMK A01 T02830196  RH  059%=      5-min Rain = 0
KRO1 111720Z 16017G22KT 28/20 A301 RMK A01 T02840196  RH  059%=      5-min Rain = 0
KRO1 111721Z 18013KT 29/20 A3011 RMK A01 T02850198  RH  059%=      5-min Rain = 0
KRO1 111722Z 18015KT 29/20 A301 RMK A01 T02860197  RH  059%=      5-min Rain = 0
KRO1 111723Z 17015KT 29/20 A301 RMK A01 T02860197  RH  059%=      5-min Rain = 0
KRO1 111724Z 17017KT 29/20 A301 RMK A01 T02850198  RH  059%=      5-min Rain = 0
KRO1 111725Z 16019KT 29/20 A301 RMK A01 T02850196  RH  059%=      5-min Rain = 0
KRO1 111726Z 16014G19KT 28/20 A301 RMK A01 T02840197  RH  059%=      5-min Rain = 0
KRO1 111727Z 18019KT 28/20 A301 RMK A01 T02840196  RH  059%=      5-min Rain = 0
KRO1 111728Z 18016KT 28/20 A301 RMK A01 T02840195  RH  058%=      5-min Rain = 0
KRO1 111729Z 18015KT 28/20 A301 RMK A01 T02840196  RH  059%=      5-min Rain = 0
KRO1 111730Z 19014KT 28/20 A301 RMK A01 T02840197  RH  059%=      5-min Rain = 0
KRO1 111731Z 17014G19KT 29/20 A301 RMK A01 T02850197  RH  059%=      5-min Rain = 0
KRO1 111732Z 17017KT 29/20 A301 RMK A01 T02860197  RH  058%=      5-min Rain = 0
KRO1 111733Z 18016KT 29/20 A301 RMK A01 T02860196  RH  058%=      5-min Rain = 0
KRO1 111734Z 18016KT 29/20 A301 RMK A01 T02860197  RH  059%=      5-min Rain = 0
KRO1 111735Z 18020KT 29/20 A301 RMK A01 T02860196  RH  058%=      5-min Rain = 0
KRO1 111736Z 18018KT 29/19 A301 RMK A01 T02850194  RH  058%=      5-min Rain = 0
KRO1 111737Z 19015KT 28/20 A301 RMK A01 T02840195  RH  058%=      5-min Rain = 0
KRO1 111738Z 18015KT 28/20 A301 RMK A01 T02840195  RH  058%=      5-min Rain = 0
KRO1 111739Z 19017KT 29/20 A301 RMK A01 T02850196  RH  058%=      5-min Rain = 0
KRO1 111740Z 19014KT 29/20 A301 RMK A01 T02860196  RH  058%=      5-min Rain = 0
KRO1 111741Z 18017KT 29/20 A301 RMK A01 T02870196  RH  058%=      5-min Rain = 0
KRO1 111742Z 19016G21KT 29/20 A301 RMK A01 T02890196  RH  057%=      5-min Rain = 0
KRO1 111743Z 19017KT 29/20 A301 RMK A01 T02900196  RH  057%=      5-min Rain = 0
KRO1 111744Z 19015KT 29/20 A301 RMK A01 T02910196  RH  057%=      5-min Rain = 0
KRO1 111745Z 17013KT 29/20 A301 RMK A01 T02920197  RH  057%=      5-min Rain = 0
KRO1 111746Z 18014KT 29/20 A301 RMK A01 T02930196  RH  056%=      5-min Rain = 0
KRO1 111747Z 17014KT 30/20 A301 RMK A01 T02950196  RH  055%=      5-min Rain = 0
KRO1 111748Z 17013G18KT 30/20 A301 RMK A01 T02960195  RH  055%=      5-min Rain = 0
KRO1 111749Z 16015KT 30/20 A301 RMK A01 T02950197  RH  055%=      5-min Rain = 0
KRO1 111750Z 17014KT 29/20 A301 RMK A01 T02940197  RH  056%=      5-min Rain = 0
KRO1 111751Z 16012KT 29/20 A301 RMK A01 T02930197  RH  056%=      5-min Rain = 0
KRO1 111752Z 17019KT 29/20 A3009 RMK A01 T02940196  RH  056%=      5-min Rain = 0
KRO1 111753Z 17020KT 30/20 A301 RMK A01 T02950195  RH  055%=      5-min Rain = 0
KRO1 111754Z 17015KT 29/20 A301 RMK A01 T02940195  RH  055%=      5-min Rain = 0
KRO1 111755Z 17016KT 30/20 A301 RMK A01 T02950196  RH  055%=      5-min Rain = 0
KRO1 111756Z 16011KT 30/20 A301 RMK A01 T02950196  RH  055%=      5-min Rain = 0
KRO1 111757Z 16014KT 30/20 A3009 RMK A01 T02950196  RH  055%=      5-min Rain = 0
KRO1 111758Z 17016KT 30/20 A3009 RMK A01 T02950196  RH  055%=      5-min Rain = 0
KRO1 111759Z 17016G22KT 29/20 A3009 RMK A01 T02940197  RH  056%=      5-min Rain = 0
KRO1 111800Z 17016KT 30/20 A3009 RMK A01 T02950196  RH  055%=      5-min Rain = 0
KRO1 111801Z 18016KT 29/20 A3009 RMK A01 T02940196  RH  055%=      5-min Rain = 0
KRO1 111802Z 18015KT 29/20 A3009 RMK A01 T02940197  RH  056%=      5-min Rain = 0
KRO1 111803Z 18017KT 30/20 A3009 RMK A01 T02960196  RH  055%=      5-min Rain = 0
KRO1 111804Z 17017KT 30/20 A3009 RMK A01 T02970196  RH  054%=      5-min Rain = 0
KRO1 111805Z 17015KT 30/20 A3009 RMK A01 T02980196  RH  054%=      5-min Rain = 0
KRO1 111806Z 18017KT 30/20 A3009 RMK A01 T02980197  RH  055%=      5-min Rain = 0
KRO1 111807Z 17016KT 30/20 A3009 RMK A01 T02990196  RH  054%=      5-min Rain = 0
KRO1 111808Z 17015KT 30/20 A3009 RMK A01 T03010198  RH  054%=      5-min Rain = 0
KRO1 111809Z 17016KT 30/20 A3009 RMK A01 T03010196  RH  053%=      5-min Rain = 0
KRO1 111810Z 17014G19KT 30/20 A3009 RMK A01 T03000197  RH  054%=      5-min Rain = 0
KRO1 111811Z 18013KT 31/20 A3009 RMK A01 T03050200  RH  054%=      5-min Rain = 0
KRO1 111812Z 18013KT 31/20 A3009 RMK A01 T03080199  RH  052%=      5-min Rain = 0
KRO1 111813Z 18016KT 31/20 A3009 RMK A01 T03080198  RH  052%=      5-min Rain = 0
KRO1 111814Z 18018KT 31/20 A3008 RMK A01 T03070198  RH  052%=      5-min Rain = 0
KRO1 111815Z 17017KT 31/20 A3009 RMK A01 T03050197  RH  052%=      5-min Rain = 0
KRO1 111816Z 18012KT 30/20 A3008 RMK A01 T03040198  RH  053%=      5-min Rain = 0
KRO1 111817Z 18013KT 30/20 A3008 RMK A01 T03040197  RH  053%=      5-min Rain = 0
KRO1 111818Z 19013KT 30/20 A3008 RMK A01 T03040197  RH  053%=      5-min Rain = 0
KRO1 111819Z 18012KT 30/20 A3008 RMK A01 T03030197  RH  053%=      5-min Rain = 0
KRO1 111820Z 17014KT 31/20 A3008 RMK A01 T03050197  RH  053%=      5-min Rain = 0
KRO1 111821Z 17018KT 30/20 A3008 RMK A01 T03040197  RH  053%=      5-min Rain = 0
KRO1 111822Z 17015KT 30/20 A3008 RMK A01 T03030198  RH  053%=      5-min Rain = 0
KRO1 111823Z 17013KT 30/20 A3008 RMK A01 T03040197  RH  053%=      5-min Rain = 0
KRO1 111824Z 16014KT 31/20 A3008 RMK A01 T03060199  RH  053%=      5-min Rain = 0
KRO1 111825Z 16012KT 31/20 A3008 RMK A01 T03080198  RH  052%=      5-min Rain = 0
KRO1 111826Z 17015KT 31/20 A3007 RMK A01 T03100198  RH  052%=      5-min Rain = 0
KRO1 111827Z 16018KT 31/20 A3007 RMK A01 T03110198  RH  051%=      5-min Rain = 0
KRO1 111828Z 16016KT 31/20 A3007 RMK A01 T03110196  RH  050%=      5-min Rain = 0
KRO1 111829Z 17012KT 31/20 A3007 RMK A01 T03090199  RH  052%=      5-min Rain = 0
KRO1 111830Z 17013KT 31/20 A3007 RMK A01 T03100197  RH  051%=      5-min Rain = 0
KRO1 111831Z 18013KT 31/20 A3007 RMK A01 T03080197  RH  052%=      5-min Rain = 0
KRO1 111832Z 19013KT 31/20 A3007 RMK A01 T03080198  RH  052%=      5-min Rain = 0
KRO1 111833Z 17012KT 31/20 A3007 RMK A01 T03130199  RH  051%=      5-min Rain = 0
KRO1 111834Z 17014KT 32/20 A3007 RMK A01 T03180198  RH  049%=      5-min Rain = 0
KRO1 111835Z 17011KT 32/20 A3007 RMK A01 T03190198  RH  049%=      5-min Rain = 0
KRO1 111836Z 17014KT 32/20 A3007 RMK A01 T03180198  RH  049%=      5-min Rain = 0
KRO1 111837Z 17014KT 32/20 A3007 RMK A01 T03150198  RH  050%=      5-min Rain = 0
KRO1 111838Z 17012KT 31/20 A3007 RMK A01 T03100196  RH  051%=      5-min Rain = 0
KRO1 111839Z 18013KT 31/20 A3007 RMK A01 T03090199  RH  052%=      5-min Rain = 0
KRO1 111840Z 16011KT 31/20 A3007 RMK A01 T03080197  RH  052%=      5-min Rain = 0
KRO1 111841Z 16011KT 31/20 A3007 RMK A01 T03070197  RH  052%=      5-min Rain = 0
KRO1 111842Z 17016KT 31/20 A3007 RMK A01 T03080196  RH  051%=      5-min Rain = 0
KRO1 111843Z 18015KT 31/20 A3007 RMK A01 T03110195  RH  050%=      5-min Rain = 0
KRO1 111844Z 17013KT 31/19 A3007 RMK A01 T03120192  RH  049%=      5-min Rain = 0
KRO1 111845Z 16012KT 31/19 A3007 RMK A01 T03120194  RH  049%=      5-min Rain = 0
KRO1 111846Z 17011KT 32/20 A3007 RMK A01 T03150195  RH  049%=      5-min Rain = 0
KRO1 111847Z 17012G17KT 32/20 A3007 RMK A01 T03160196  RH  049%=      5-min Rain = 0
KRO1 111848Z 16013KT 31/20 A3007 RMK A01 T03140196  RH  050%=      5-min Rain = 0
KRO1 111849Z 15010KT 31/20 A3007 RMK A01 T03140197  RH  050%=      5-min Rain = 0
KRO1 111850Z 16014KT 32/20 A3007 RMK A01 T03170197  RH  049%=      5-min Rain = 0
KRO1 111851Z 17013KT 32/20 A3007 RMK A01 T03180195  RH  048%=      5-min Rain = 0
KRO1 111852Z 17014KT 32/20 A3007 RMK A01 T03150195  RH  049%=      5-min Rain = 0
KRO1 111853Z 17014KT 31/20 A3007 RMK A01 T03140197  RH  050%=      5-min Rain = 0
KRO1 111854Z 18013KT 32/20 A3006 RMK A01 T03150198  RH  050%=      5-min Rain = 0
KRO1 111855Z 17010KT 32/20 A3006 RMK A01 T03150197  RH  050%=      5-min Rain = 0
KRO1 111856Z 16016G21KT 31/20 A3006 RMK A01 T03130198  RH  050%=      5-min Rain = 0
KRO1 111857Z 16016KT 31/20 A3006 RMK A01 T03110195  RH  050%=      5-min Rain = 0
KRO1 111858Z 15014KT 31/20 A3006 RMK A01 T03110196  RH  050%=      5-min Rain = 0
KRO1 111859Z 14012KT 32/20 A3006 RMK A01 T03150196  RH  049%=      5-min Rain = 0
KRO1 111900Z 15013KT 32/20 A3006 RMK A01 T03210199  RH  049%=      5-min Rain = 0
KRO1 111901Z 15016G21KT 32/20 A3006 RMK A01 T03240199  RH  048%=      5-min Rain = 0
KRO1 111902Z 14015KT 32/20 A3006 RMK A01 T03180198  RH  049%=      5-min Rain = 0
KRO1 111903Z 15014G19KT 31/20 A3006 RMK A01 T03130198  RH  050%=      5-min Rain = 0
KRO1 111904Z 15017KT 31/20 A3006 RMK A01 T03130199  RH  051%=      5-min Rain = 0
KRO1 111905Z 16016KT 32/20 A3006 RMK A01 T03170197  RH  049%=      5-min Rain = 0
KRO1 111906Z 16014KT 32/20 A3006 RMK A01 T03170197  RH  049%=      5-min Rain = 0
KRO1 111907Z 16013KT 32/20 A3006 RMK A01 T03170196  RH  049%=      5-min Rain = 0
KRO1 111908Z 16011KT 32/20 A3006 RMK A01 T03180197  RH  049%=      5-min Rain = 0
KRO1 111909Z 18012KT 32/20 A3006 RMK A01 T03180196  RH  049%=      5-min Rain = 0
KRO1 111910Z 17011KT 32/20 A3006 RMK A01 T03160197  RH  049%=      5-min Rain = 0
KRO1 111911Z 15013KT 32/20 A3006 RMK A01 T03160197  RH  049%=      5-min Rain = 0
KRO1 111912Z 15013KT 32/20 A3006 RMK A01 T03210197  RH  048%=      5-min Rain = 0
KRO1 111913Z 14013KT 32/20 A3006 RMK A01 T03220197  RH  048%=      5-min Rain = 0
KRO1 111914Z 15016KT 32/20 A3006 RMK A01 T03240197  RH  047%=      5-min Rain = 0
KRO1 111915Z 16016KT 32/20 A3006 RMK A01 T03240196  RH  047%=      5-min Rain = 0
KRO1 111916Z 15013KT 32/20 A3006 RMK A01 T03210195  RH  047%=      5-min Rain = 0
KRO1 111917Z 15012KT 32/20 A3006 RMK A01 T03200196  RH  048%=      5-min Rain = 0
KRO1 111918Z 15011KT 32/20 A3006 RMK A01 T03210197  RH  048%=      5-min Rain = 0
KRO1 111919Z 15010KT 32/20 A3006 RMK A01 T03200198  RH  049%=      5-min Rain = 0
KRO1 111920Z 16017KT 32/19 A3006 RMK A01 T03190194  RH  048%=      5-min Rain = 0
KRO1 111921Z 16014KT 32/19 A3006 RMK A01 T03150192  RH  048%=      5-min Rain = 0
KRO1 111922Z 16013KT 31/19 A3006 RMK A01 T03110192  RH  049%=      5-min Rain = 0
KRO1 111923Z 15012G18KT 31/19 A3005 RMK A01 T03090192  RH  050%=      5-min Rain = 0
KRO1 111924Z 15015KT 31/19 A3005 RMK A01 T03090193  RH  050%=      5-min Rain = 0
KRO1 111925Z 16012KT 31/19 A3005 RMK A01 T03120194  RH  049%=      5-min Rain = 0
KRO1 111926Z 18014KT 32/19 A3005 RMK A01 T03180193  RH  048%=      5-min Rain = 0
KRO1 111927Z 17014KT 32/19 A3005 RMK A01 T03210193  RH  047%=      5-min Rain = 0
KRO1 111928Z 17014KT 32/19 A3005 RMK A01 T03230193  RH  046%=      5-min Rain = 0
KRO1 111929Z 18012KT 32/19 A3005 RMK A01 T03230193  RH  046%=      5-min Rain = 0
KRO1 111930Z 18015KT 32/20 A3005 RMK A01 T03220195  RH  047%=      5-min Rain = 0
KRO1 111931Z 18012G17KT 32/19 A3005 RMK A01 T03210194  RH  047%=      5-min Rain = 0
KRO1 111932Z 17014KT 32/19 A3005 RMK A01 T03190192  RH  047%=      5-min Rain = 0
KRO1 111933Z 15011KT 32/19 A3005 RMK A01 T03180192  RH  047%=      5-min Rain = 0
KRO1 111934Z 15008KT 32/20 A3004 RMK A01 T03180195  RH  048%=      5-min Rain = 0
KRO1 111935Z 15013KT 32/19 A3004 RMK A01 T03230194  RH  047%=      5-min Rain = 0
KRO1 111936Z 16016KT 33/19 A3004 RMK A01 T03250192  RH  045%=      5-min Rain = 0
KRO1 111937Z 16014KT 33/19 A3004 RMK A01 T03260192  RH  045%=      5-min Rain = 0
KRO1 111938Z 16011KT 32/19 A3004 RMK A01 T03220191  RH  046%=      5-min Rain = 0
KRO1 111939Z 16015KT 32/19 A3004 RMK A01 T03180193  RH  047%=      5-min Rain = 0
KRO1 111940Z 16016KT 32/19 A3004 RMK A01 T03170194  RH  048%=      5-min Rain = 0
KRO1 111941Z 15013KT 32/20 A3004 RMK A01 T03150195  RH  049%=      5-min Rain = 0
KRO1 111942Z 14016KT 32/20 A3004 RMK A01 T03150195  RH  049%=      5-min Rain = 0
KRO1 111943Z 14019KT 32/20 A3004 RMK A01 T03160196  RH  049%=      5-min Rain = 0
KRO1 111944Z 15019KT 32/20 A3004 RMK A01 T03170196  RH  049%=      5-min Rain = 0
KRO1 111945Z 15017KT 32/20 A3004 RMK A01 T03200196  RH  048%=      5-min Rain = 0
KRO1 111946Z 16016KT 32/20 A3004 RMK A01 T03230197  RH  047%=      5-min Rain = 0
KRO1 111947Z 15017KT 33/19 A3004 RMK A01 T03250194  RH  046%=      5-min Rain = 0
KRO1 111948Z 16017KT 32/19 A3004 RMK A01 T03210194  RH  047%=      5-min Rain = 0
KRO1 111949Z 15015KT 32/19 A3004 RMK A01 T03160193  RH  048%=      5-min Rain = 0
KRO1 111950Z 16014KT 31/19 A3004 RMK A01 T03140193  RH  049%=      5-min Rain = 0
KRO1 111951Z 16012KT 31/19 A3004 RMK A01 T03120191  RH  049%=      5-min Rain = 0
KRO1 111952Z 17015KT 31/19 A3004 RMK A01 T03110193  RH  049%=      5-min Rain = 0
KRO1 111953Z 17015KT 31/19 A3003 RMK A01 T03130194  RH  049%=      5-min Rain = 0
KRO1 111954Z 16013KT 32/20 A3003 RMK A01 T03170195  RH  048%=      5-min Rain = 0
KRO1 111955Z 15015KT 32/20 A3003 RMK A01 T03220196  RH  047%=      5-min Rain = 0
KRO1 111956Z 15014KT 33/20 A3003 RMK A01 T03270196  RH  046%=      5-min Rain = 0
KRO1 111957Z 17015KT 33/20 A3003 RMK A01 T03300195  RH  045%=      5-min Rain = 0
KRO1 111958Z 17016KT 33/20 A3003 RMK A01 T03300195  RH  045%=      5-min Rain = 0
KRO1 111959Z 16016KT 33/20 A3003 RMK A01 T03290198  RH  046%=      5-min Rain = 0
KRO1 112000Z 16016KT 33/20 A3003 RMK A01 T03300197  RH  046%=      5-min Rain = 0
KRO1 112001Z 15016KT 33/20 A3003 RMK A01 T03260195  RH  046%=      5-min Rain = 0
KRO1 112002Z 16014G20KT 32/20 A3003 RMK A01 T03220195  RH  047%=      5-min Rain = 0
KRO1 112003Z 16019G24KT 32/20 A3003 RMK A01 T03230198  RH  048%=      5-min Rain = 0
KRO1 112004Z 17021KT 32/20 A3003 RMK A01 T03230198  RH  048%=      5-min Rain = 0
KRO1 112005Z 17022G27KT 32/20 A3003 RMK A01 T03210198  RH  048%=      5-min Rain = 0
KRO1 112006Z 17020KT 32/20 A3003 RMK A01 T03190197  RH  048%=      5-min Rain = 0
KRO1 112007Z 16021KT 32/20 A3003 RMK A01 T03180196  RH  048%=      5-min Rain = 0
KRO1 112008Z 16019KT 32/20 A3003 RMK A01 T03160195  RH  049%=      5-min Rain = 0
KRO1 112009Z 17021G26KT 31/19 A3003 RMK A01 T03140194  RH  049%=      5-min Rain = 0
KRO1 112010Z 16021KT 31/19 A3003 RMK A01 T03140192  RH  048%=      5-min Rain = 0
KRO1 112011Z 16022KT 31/19 A3003 RMK A01 T03140190  RH  048%=      5-min Rain = 0
KRO1 112012Z 17020KT 31/19 A3003 RMK A01 T03110190  RH  049%=      5-min Rain = 0
KRO1 112013Z 17017KT 31/19 A3003 RMK A01 T03090189  RH  049%=      5-min Rain = 0
KRO1 112014Z 16019G24KT 31/19 A3003 RMK A01 T03090190  RH  049%=      5-min Rain = 0
KRO1 112015Z 16018KT 31/19 A3003 RMK A01 T03080187  RH  049%=      5-min Rain = 0
KRO1 112016Z 16018KT 31/19 A3003 RMK A01 T03080187  RH  049%=      5-min Rain = 0
KRO1 112017Z 17021KT 31/19 A3003 RMK A01 T03110188  RH  048%=      5-min Rain = 0
KRO1 112018Z 16022KT 31/19 A3003 RMK A01 T03120187  RH  047%=      5-min Rain = 0
KRO1 112019Z 15019KT 31/19 A3003 RMK A01 T03110187  RH  048%=      5-min Rain = 0
KRO1 112020Z 16017KT 31/19 A3003 RMK A01 T03100188  RH  048%=      5-min Rain = 0
KRO1 112021Z 15018KT 31/19 A3003 RMK A01 T03090188  RH  049%=      5-min Rain = 0
KRO1 112022Z 15022KT 31/19 A3003 RMK A01 T03080188  RH  049%=      5-min Rain = 0
KRO1 112023Z 17020KT 31/19 A3003 RMK A01 T03090189  RH  049%=      5-min Rain = 0
KRO1 112024Z 18018G24KT 31/19 A3003 RMK A01 T03090191  RH  049%=      5-min Rain = 0
KRO1 112025Z 17020KT 31/19 A3003 RMK A01 T03100193  RH  050%=      5-min Rain = 0
KRO1 112026Z 16019G24KT 31/19 A3003 RMK A01 T03090193  RH  050%=      5-min Rain = 0
KRO1 112027Z 17019G24KT 31/20 A3003 RMK A01 T03070196  RH  051%=      5-min Rain = 0
KRO1 112028Z 17019G25KT 31/20 A3002 RMK A01 T03050197  RH  053%=      5-min Rain = 0
KRO1 112029Z 15018G25KT 30/20 A3003 RMK A01 T03040199  RH  053%=      5-min Rain = 0
KRO1 112030Z 17019G24KT 31/20 A3002 RMK A01 T03070199  RH  052%=      5-min Rain = 0
KRO1 112031Z 16018KT 31/20 A3003 RMK A01 T03120198  RH  051%=      5-min Rain = 0
KRO1 112032Z 16021KT 31/20 A3003 RMK A01 T03140196  RH  050%=      5-min Rain = 0
KRO1 112033Z 17021KT 32/20 A3003 RMK A01 T03150197  RH  050%=      5-min Rain = 0
KRO1 112034Z 17020G25KT 32/19 A3003 RMK A01 T03150194  RH  049%=      5-min Rain = 0
KRO1 112035Z 17024G29KT 32/20 A3003 RMK A01 T03150197  RH  050%=      5-min Rain = 0
KRO1 112036Z 18020KT 31/20 A3003 RMK A01 T03100195  RH  050%=      5-min Rain = 0
KRO1 112037Z 18022G27KT 31/20 A3003 RMK A01 T03050196  RH  052%=      5-min Rain = 0
KRO1 112038Z 18025KT 30/20 A3003 RMK A01 T03010195  RH  053%=      5-min Rain = 0
KRO1 112039Z 18024KT 30/19 A3003 RMK A01 T02980193  RH  053%=      5-min Rain = 0
KRO1 112040Z 17023KT 30/19 A3003 RMK A01 T02960193  RH  054%=      5-min Rain = 0
KRO1 112041Z 16024KT 29/19 A3003 RMK A01 T02940192  RH  054%=      5-min Rain = 0
KRO1 112042Z 16023KT 29/19 A3003 RMK A01 T02930193  RH  055%=      5-min Rain = 0
KRO1 112043Z 17020KT 29/20 A3003 RMK A01 T02920195  RH  056%=      5-min Rain = 0
KRO1 112044Z 16021G26KT 29/20 A3003 RMK A01 T02920197  RH  057%=      5-min Rain = 0
KRO1 112045Z 15020KT 29/20 A3003 RMK A01 T02910197  RH  057%=      5-min Rain = 0
KRO1 112046Z 16021KT 29/20 A3003 RMK A01 T02910197  RH  057%=      5-min Rain = 0
KRO1 112047Z 17018G23KT 29/20 A3003 RMK A01 T02920198  RH  057%=      5-min Rain = 0
KRO1 112048Z 18019G25KT 29/20 A3002 RMK A01 T02910197  RH  057%=      5-min Rain = 0
KRO1 112049Z 18020KT 29/20 A3002 RMK A01 T02910198  RH  057%=      5-min Rain = 0
KRO1 112050Z 17021G26KT 29/20 A3003 RMK A01 T02900198  RH  057%=      5-min Rain = 0
KRO1 112051Z 18023G28KT 29/20 A3003 RMK A01 T02900196  RH  057%=      5-min Rain = 0
KRO1 112052Z 18022KT 29/19 A3003 RMK A01 T02880193  RH  056%=      5-min Rain = 0
KRO1 112053Z 18021G26KT 29/19 A3003 RMK A01 T02860193  RH  057%=      5-min Rain = 0
KRO1 112054Z 18019G25KT 29/19 A3003 RMK A01 T02850193  RH  057%=      5-min Rain = 0
KRO1 112055Z 18019KT 29/19 A3003 RMK A01 T02850193  RH  058%=      5-min Rain = 0
KRO1 112056Z 18021KT 29/19 A3003 RMK A01 T02850192  RH  057%=      5-min Rain = 0
KRO1 112057Z 17019G24KT 28/19 A3003 RMK A01 T02840193  RH  058%=      5-min Rain = 0
KRO1 112058Z 17019KT 28/19 A3002 RMK A01 T02840193  RH  058%=      5-min Rain = 0
KRO1 112059Z 16019G24KT 28/19 A3002 RMK A01 T02840194  RH  058%=      5-min Rain = 0
KRO1 112100Z 17021KT 28/19 A3002 RMK A01 T02840194  RH  058%=      5-min Rain = 0
KRO1 112101Z 17018KT 28/19 A3002 RMK A01 T02840193  RH  058%=      5-min Rain = 0
KRO1 112102Z 17019KT 28/19 A3002 RMK A01 T02840194  RH  058%=      5-min Rain = 0
KRO1 112103Z 18021KT 28/20 A3002 RMK A01 T02840196  RH  059%=      5-min Rain = 0
KRO1 112104Z 18022KT 28/20 A3002 RMK A01 T02830197  RH  060%=      5-min Rain = 0
KRO1 112105Z 18020KT 28/20 A3002 RMK A01 T02820197  RH  060%=      5-min Rain = 0
KRO1 112106Z 18018G23KT 28/20 A3002 RMK A01 T02820196  RH  060%=      5-min Rain = 0
KRO1 112107Z 18022KT 28/20 A3002 RMK A01 T02820196  RH  060%=      5-min Rain = 0
KRO1 112108Z 18021KT 28/20 A3002 RMK A01 T02820196  RH  060%=      5-min Rain = 0
KRO1 112109Z 18019KT 28/20 A3002 RMK A01 T02820195  RH  059%=      5-min Rain = 0
KRO1 112110Z 17019KT 28/20 A3002 RMK A01 T02820196  RH  060%=      5-min Rain = 0
KRO1 112111Z 17020G26KT 28/20 A3002 RMK A01 T02810197  RH  060%=      5-min Rain = 0
KRO1 112112Z 17018KT 28/20 A3002 RMK A01 T02810198  RH  061%=      5-min Rain = 0
KRO1 112113Z 18017KT 28/20 A3002 RMK A01 T02810198  RH  061%=      5-min Rain = 0
KRO1 112114Z 17018KT 28/20 A3002 RMK A01 T02810199  RH  061%=      5-min Rain = 0
KRO1 112115Z 17019KT 28/20 A3002 RMK A01 T02800198  RH  061%=      5-min Rain = 0
KRO1 112116Z 17020KT 28/20 A3002 RMK A01 T02810198  RH  061%=      5-min Rain = 0
KRO1 112117Z 17019KT 28/20 A3002 RMK A01 T02800197  RH  061%=      5-min Rain = 0
KRO1 112118Z 18019KT 28/20 A3002 RMK A01 T02800196  RH  060%=      5-min Rain = 0
KRO1 112119Z 18019KT 28/20 A3002 RMK A01 T02800196  RH  060%=      5-min Rain = 0
KRO1 112120Z 18019KT 28/20 A3002 RMK A01 T02800196  RH  060%=      5-min Rain = 0
KRO1 112121Z 17019KT 28/20 A3002 RMK A01 T02800196  RH  060%=      5-min Rain = 0
KRO1 112122Z 18017KT 28/20 A3002 RMK A01 T02800197  RH  061%=      5-min Rain = 0
KRO1 112123Z 18020KT 28/20 A3002 RMK A01 T02800197  RH  060%=      5-min Rain = 0
KRO1 112124Z 17018KT 28/20 A3002 RMK A01 T02800196  RH  060%=      5-min Rain = 0
KRO1 112125Z 17018G23KT 28/20 A3002 RMK A01 T02810197  RH  060%=      5-min Rain = 0
KRO1 112126Z 17020KT 28/20 A3002 RMK A01 T02810197  RH  060%=      5-min Rain = 0
KRO1 112127Z 18020KT 28/20 A3002 RMK A01 T02810197  RH  060%=      5-min Rain = 0
KRO1 112128Z 18019KT 28/20 A3002 RMK A01 T02810195  RH  060%=      5-min Rain = 0
KRO1 112129Z 18019KT 28/20 A3002 RMK A01 T02810195  RH  060%=      5-min Rain = 0
KRO1 112130Z 18015KT 28/20 A3002 RMK A01 T02810195  RH  060%=      5-min Rain = 0
KRO1 112131Z 18016G21KT 28/20 A3002 RMK A01 T02800195  RH  060%=      5-min Rain = 0
KRO1 112132Z 18016KT 28/20 A3002 RMK A01 T02810195  RH  059%=      5-min Rain = 0
KRO1 112133Z 17018KT 28/20 A3002 RMK A01 T02820195  RH  059%=      5-min Rain = 0
KRO1 112134Z 17019KT 28/20 A3002 RMK A01 T02820195  RH  059%=      5-min Rain = 0
KRO1 112135Z 17017KT 28/20 A3002 RMK A01 T02810195  RH  059%=      5-min Rain = 0
KRO1 112136Z 17017KT 28/19 A3002 RMK A01 T02810194  RH  059%=      5-min Rain = 0
KRO1 112137Z 17015KT 28/20 A3002 RMK A01 T02820195  RH  059%=      5-min Rain = 0
KRO1 112138Z 17018KT 28/20 A3002 RMK A01 T02820195  RH  059%=      5-min Rain = 0
KRO1 112139Z 17018KT 28/20 A3002 RMK A01 T02830195  RH  059%=      5-min Rain = 0
KRO1 112140Z 16017KT 28/20 A3002 RMK A01 T02820195  RH  059%=      5-min Rain = 0
KRO1 112141Z 16017G22KT 28/20 A3002 RMK A01 T02820195  RH  059%=      5-min Rain = 0
KRO1 112142Z 17014KT 28/20 A3002 RMK A01 T02820195  RH  059%=      5-min Rain = 0
KRO1 112143Z 18015KT 28/20 A3002 RMK A01 T02820196  RH  060%=      5-min Rain = 0
KRO1 112144Z 18015KT 28/20 A3002 RMK A01 T02830196  RH  059%=      5-min Rain = 0
KRO1 112145Z 18018KT 28/20 A3002 RMK A01 T02830196  RH  059%=      5-min Rain = 0
KRO1 112146Z 18018KT 28/20 A3002 RMK A01 T02830196  RH  059%=      5-min Rain = 0
KRO1 112147Z 18016KT 28/20 A3002 RMK A01 T02830196  RH  059%=      5-min Rain = 0
KRO1 112148Z 17016G21KT 28/20 A3001 RMK A01 T02830196  RH  059%=      5-min Rain = 0
KRO1 112149Z 18015KT 28/20 A3001 RMK A01 T02830196  RH  059%=      5-min Rain = 0
KRO1 112150Z 18017G23KT 28/20 A3001 RMK A01 T02830196  RH  059%=      5-min Rain = 0
KRO1 112151Z 17020KT 28/20 A3001 RMK A01 T02830195  RH  059%=      5-min Rain = 0
KRO1 112152Z 17018KT 28/20 A3001 RMK A01 T02820195  RH  059%=      5-min Rain = 0
KRO1 112153Z 17017KT 28/20 A3001 RMK A01 T02820196  RH  059%=      5-min Rain = 0
KRO1 112154Z 17018KT 28/20 A3001 RMK A01 T02820196  RH  059%=      5-min Rain = 0
KRO1 112155Z 17018KT 28/20 A3001 RMK A01 T02820196  RH  060%=      5-min Rain = 0
KRO1 112156Z 18017KT 28/20 A3001 RMK A01 T02820196  RH  060%=      5-min Rain = 0
KRO1 112157Z 18015KT 28/20 A3001 RMK A01 T02820197  RH  060%=      5-min Rain = 0
KRO1 112158Z 18017KT 28/20 A3001 RMK A01 T02830197  RH  060%=      5-min Rain = 0
KRO1 112159Z 18016KT 28/20 A3001 RMK A01 T02830196  RH  059%=      5-min Rain = 0
KRO1 112200Z 18016KT 28/20 A3001 RMK A01 T02830197  RH  060%=      5-min Rain = 0
KRO1 112201Z 18016KT 28/20 A3001 RMK A01 T02830197  RH  060%=      5-min Rain = 0
KRO1 112202Z 18015KT 28/20 A3001 RMK A01 T02840198  RH  060%=      5-min Rain = 0
KRO1 112203Z 18015KT 28/20 A3001 RMK A01 T02840198  RH  060%=      5-min Rain = 0
KRO1 112204Z 17016KT 28/20 A30 RMK A01 T02840198  RH  060%=      5-min Rain = 0
KRO1 112205Z 18014KT 28/20 A30 RMK A01 T02840198  RH  060%=      5-min Rain = 0
KRO1 112206Z 18015KT 28/20 A30 RMK A01 T02840199  RH  060%=      5-min Rain = 0
KRO1 112207Z 18012KT 28/20 A30 RMK A01 T02840199  RH  060%=      5-min Rain = 0
KRO1 112208Z 18011KT 29/20 A30 RMK A01 T02850200  RH  060%=      5-min Rain = 0
KRO1 112209Z 18012KT 29/20 A30 RMK A01 T02860200  RH  060%=      5-min Rain = 0
KRO1 112210Z 18013KT 29/20 A30 RMK A01 T02860200  RH  060%=      5-min Rain = 0
KRO1 112211Z 18011KT 29/20 A30 RMK A01 T02870200  RH  059%=      5-min Rain = 0
KRO1 112212Z 17013KT 29/20 A30 RMK A01 T02870200  RH  059%=      5-min Rain = 0
KRO1 112213Z 17014KT 29/20 A30 RMK A01 T02870199  RH  059%=      5-min Rain = 0
KRO1 112214Z 17014KT 29/20 A30 RMK A01 T02880198  RH  058%=      5-min Rain = 0
KRO1 112215Z 18015KT 29/20 A30 RMK A01 T02880198  RH  058%=      5-min Rain = 0
KRO1 112216Z 18015KT 29/20 A30 RMK A01 T02880198  RH  058%=      5-min Rain = 0
KRO1 112217Z 18012KT 29/20 A30 RMK A01 T02870198  RH  059%=      5-min Rain = 0
KRO1 112218Z 18013KT 29/20 A30 RMK A01 T02870199  RH  059%=      5-min Rain = 0
KRO1 112219Z 18013KT 29/20 A30 RMK A01 T02870199  RH  059%=      5-min Rain = 0
KRO1 112220Z 17015KT 29/20 A30 RMK A01 T02880199  RH  058%=      5-min Rain = 0
KRO1 112221Z 17013KT 29/20 A30 RMK A01 T02890198  RH  058%=      5-min Rain = 0
KRO1 112222Z 16016KT 29/20 A30 RMK A01 T02890198  RH  058%=      5-min Rain = 0
KRO1 112223Z 16015KT 29/20 A30 RMK A01 T02890197  RH  057%=      5-min Rain = 0
KRO1 112224Z 17015KT 29/20 A30 RMK A01 T02900198  RH  057%=      5-min Rain = 0
KRO1 112225Z 17015KT 29/20 A30 RMK A01 T02900196  RH  057%=      5-min Rain = 0
KRO1 112226Z 17015KT 29/20 A30 RMK A01 T02910197  RH  057%=      5-min Rain = 0
KRO1 112227Z 17017KT 29/20 A30 RMK A01 T02910198  RH  057%=      5-min Rain = 0
KRO1 112228Z 17017KT 29/20 A30 RMK A01 T02910198  RH  057%=      5-min Rain = 0
KRO1 112229Z 17016KT 29/20 A30 RMK A01 T02900198  RH  057%=      5-min Rain = 0
KRO1 112230Z 18016KT 29/20 A30 RMK A01 T02900198  RH  058%=      5-min Rain = 0
KRO1 112231Z 17016KT 29/20 A30 RMK A01 T02900197  RH  057%=      5-min Rain = 0
KRO1 112232Z 17018KT 29/20 A30 RMK A01 T02900197  RH  057%=      5-min Rain = 0
KRO1 112233Z 17017KT 29/20 A30 RMK A01 T02900198  RH  057%=      5-min Rain = 0
KRO1 112234Z 17017KT 29/20 A30 RMK A01 T02910198  RH  057%=      5-min Rain = 0
KRO1 112235Z 17018KT 29/20 A30 RMK A01 T02910198  RH  057%=      5-min Rain = 0
KRO1 112236Z 17017KT 29/20 A30 RMK A01 T02910198  RH  057%=      5-min Rain = 0
KRO1 112237Z 17015KT 29/20 A30 RMK A01 T02910197  RH  057%=      5-min Rain = 0
KRO1 112238Z 18013KT 29/20 A30 RMK A01 T02920198  RH  057%=      5-min Rain = 0
KRO1 112239Z 18016KT 29/20 A30 RMK A01 T02930197  RH  056%=      5-min Rain = 0
KRO1 112240Z 17018KT 29/20 A30 RMK A01 T02930195  RH  056%=      5-min Rain = 0
KRO1 112241Z 16017KT 29/20 A30 RMK A01 T02920195  RH  056%=      5-min Rain = 0
KRO1 112242Z 17016KT 29/20 A30 RMK A01 T02910195  RH  056%=      5-min Rain = 0
KRO1 112243Z 18014G19KT 29/20 A30 RMK A01 T02910196  RH  056%=      5-min Rain = 0
KRO1 112244Z 17013G18KT 29/20 A30 RMK A01 T02920196  RH  056%=      5-min Rain = 0
KRO1 112245Z 18015KT 29/20 A30 RMK A01 T02930196  RH  056%=      5-min Rain = 0
KRO1 112246Z 18015KT 29/20 A30 RMK A01 T02930195  RH  056%=      5-min Rain = 0
KRO1 112247Z 18013KT 29/20 A30 RMK A01 T02930196  RH  056%=      5-min Rain = 0
KRO1 112248Z 18016G21KT 29/20 A30 RMK A01 T02930195  RH  055%=      5-min Rain = 0
KRO1 112249Z 17015KT 29/20 A30 RMK A01 T02930195  RH  056%=      5-min Rain = 0
KRO1 112250Z 18016KT 29/20 A30 RMK A01 T02930196  RH  056%=      5-min Rain = 0
KRO1 112251Z 17017KT 29/20 A30 RMK A01 T02940195  RH  055%=      5-min Rain = 0
KRO1 112252Z 18016KT 29/20 A30 RMK A01 T02930195  RH  056%=      5-min Rain = 0
KRO1 112253Z 18016KT 29/19 A30 RMK A01 T02930194  RH  055%=      5-min Rain = 0
KRO1 112254Z 17016KT 29/19 A30 RMK A01 T02940193  RH  055%=      5-min Rain = 0
KRO1 112255Z 18015KT 30/19 A30 RMK A01 T02950192  RH  054%=      5-min Rain = 0
KRO1 112256Z 18015KT 30/19 A30 RMK A01 T02960192  RH  054%=      5-min Rain = 0
KRO1 112257Z 18016KT 30/19 A30 RMK A01 T02970193  RH  054%=      5-min Rain = 0
KRO1 112258Z 18015G20KT 30/19 A30 RMK A01 T02980194  RH  054%=      5-min Rain = 0
KRO1 112259Z 18014KT 30/19 A30 RMK A01 T02990194  RH  054%=      5-min Rain = 0
KRO1 112300Z 18016KT 30/19 A30 RMK A01 T03000194  RH  053%=      5-min Rain = 0
KRO1 112301Z 18019KT 30/19 A30 RMK A01 T03000193  RH  053%=      5-min Rain = 0
KRO1 112302Z 18016KT 30/19 A30 RMK A01 T02980192  RH  053%=      5-min Rain = 0
KRO1 112303Z 17015KT 30/19 A30 RMK A01 T02970193  RH  054%=      5-min Rain = 0
KRO1 112304Z 17016KT 30/19 A30 RMK A01 T02950193  RH  054%=      5-min Rain = 0
KRO1 112305Z 18017KT 29/19 A30 RMK A01 T02940193  RH  054%=      5-min Rain = 0
KRO1 112306Z 17014KT 29/19 A30 RMK A01 T02940192  RH  054%=      5-min Rain = 0
KRO1 112307Z 18015KT 29/19 A30 RMK A01 T02940193  RH  054%=      5-min Rain = 0
KRO1 112308Z 17014KT 30/19 A30 RMK A01 T02960193  RH  054%=      5-min Rain = 0
KRO1 112309Z 16014KT 30/19 A30 RMK A01 T02960193  RH  054%=      5-min Rain = 0
KRO1 112310Z 17013KT 30/19 A30 RMK A01 T02960194  RH  054%=      5-min Rain = 0
KRO1 112311Z 17014KT 30/19 A30 RMK A01 T02960193  RH  054%=      5-min Rain = 0
KRO1 112312Z 16012KT 30/19 A30 RMK A01 T02970194  RH  054%=      5-min Rain = 0
KRO1 112313Z 16012KT 30/19 A30 RMK A01 T02980194  RH  054%=      5-min Rain = 0
KRO1 112314Z 16014KT 30/19 A2999 RMK A01 T02980193  RH  053%=      5-min Rain = 0
KRO1 112315Z 15013KT 30/19 A2999 RMK A01 T02990193  RH  053%=      5-min Rain = 0
KRO1 112316Z 16014KT 30/19 A2999 RMK A01 T02990193  RH  053%=      5-min Rain = 0
KRO1 112317Z 17012KT 30/19 A2999 RMK A01 T02990194  RH  053%=      5-min Rain = 0
KRO1 112318Z 17015KT 30/19 A2999 RMK A01 T02990194  RH  053%=      5-min Rain = 0
KRO1 112319Z 16013KT 30/19 A2999 RMK A01 T02990194  RH  053%=      5-min Rain = 0
KRO1 112320Z 16013KT 30/19 A2999 RMK A01 T02990194  RH  053%=      5-min Rain = 0
KRO1 112321Z 17017KT 30/19 A2999 RMK A01 T02990192  RH  053%=      5-min Rain = 0
KRO1 112322Z 16017KT 30/19 A2999 RMK A01 T02970192  RH  053%=      5-min Rain = 0
KRO1 112323Z 16016KT 30/19 A30 RMK A01 T02950192  RH  054%=      5-min Rain = 0
KRO1 112324Z 15015KT 30/19 A30 RMK A01 T02950192  RH  054%=      5-min Rain = 0
KRO1 112325Z 16017KT 30/19 A30 RMK A01 T02950192  RH  054%=      5-min Rain = 0
KRO1 112326Z 16015KT 30/19 A30 RMK A01 T02950192  RH  054%=      5-min Rain = 0
KRO1 112327Z 16018KT 30/19 A30 RMK A01 T02950192  RH  054%=      5-min Rain = 0
KRO1 112328Z 17017KT 30/19 A30 RMK A01 T02950190  RH  053%=      5-min Rain = 0
KRO1 112329Z 17016KT 30/19 A30 RMK A01 T02950190  RH  053%=      5-min Rain = 0
KRO1 112330Z 17017KT 30/19 A30 RMK A01 T02950190  RH  053%=      5-min Rain = 0
KRO1 112331Z 16018KT 30/19 A30 RMK A01 T02960190  RH  053%=      5-min Rain = 0
KRO1 112332Z 16016KT 30/19 A30 RMK A01 T02950190  RH  053%=      5-min Rain = 0
KRO1 112333Z 18015KT 30/19 A30 RMK A01 T02950191  RH  054%=      5-min Rain = 0
KRO1 112334Z 18014KT 30/19 A30 RMK A01 T02950191  RH  054%=      5-min Rain = 0
KRO1 112335Z 19014G19KT 30/19 A30 RMK A01 T02950192  RH  054%=      5-min Rain = 0
KRO1 112336Z 18015KT 30/19 A30 RMK A01 T02960189  RH  053%=      5-min Rain = 0
KRO1 112337Z 18013KT 30/19 A30 RMK A01 T02960191  RH  053%=      5-min Rain = 0
KRO1 112338Z 18017KT 30/19 A30 RMK A01 T02960191  RH  053%=      5-min Rain = 0
KRO1 112339Z 17014KT 30/19 A30 RMK A01 T02960191  RH  053%=      5-min Rain = 0
KRO1 112340Z 18014KT 30/19 A30 RMK A01 T02960191  RH  053%=      5-min Rain = 0
KRO1 112341Z 17018KT 30/19 A30 RMK A01 T02960191  RH  053%=      5-min Rain = 0
KRO1 112342Z 17018KT 30/19 A30 RMK A01 T02950191  RH  054%=      5-min Rain = 0
KRO1 112343Z 17017KT 29/19 A30 RMK A01 T02940191  RH  054%=      5-min Rain = 0
KRO1 112344Z 18014KT 29/19 A30 RMK A01 T02930191  RH  054%=      5-min Rain = 0
KRO1 112345Z 17014KT 29/19 A30 RMK A01 T02930191  RH  054%=      5-min Rain = 0
KRO1 112346Z 18015KT 29/19 A30 RMK A01 T02930191  RH  054%=      5-min Rain = 0
KRO1 112347Z 18016KT 29/19 A30 RMK A01 T02930190  RH  054%=      5-min Rain = 0
KRO1 112348Z 18015KT 29/19 A30 RMK A01 T02940190  RH  054%=      5-min Rain = 0
KRO1 112349Z 18014KT 29/19 A30 RMK A01 T02940191  RH  054%=      5-min Rain = 0
KRO1 112350Z 18012KT 29/19 A30 RMK A01 T02940191  RH  054%=      5-min Rain = 0
KRO1 112351Z 19013KT 29/19 A30 RMK A01 T02940191  RH  054%=      5-min Rain = 0
KRO1 112352Z 19014KT 29/19 A30 RMK A01 T02940191  RH  054%=      5-min Rain = 0
KRO1 112353Z 18014KT 29/19 A30 RMK A01 T02940191  RH  054%=      5-min Rain = 0
KRO1 112354Z 18014KT 29/19 A30 RMK A01 T02930191  RH  054%=      5-min Rain = 0
KRO1 112355Z 18011KT 29/19 A30 RMK A01 T02930192  RH  054%=      5-min Rain = 0
KRO1 112356Z 17014KT 29/19 A30 RMK A01 T02930191  RH  054%=      5-min Rain = 0
KRO1 112357Z 17015KT 29/19 A30 RMK A01 T02940191  RH  054%=      5-min Rain = 0
KRO1 112358Z 18015KT 29/19 A30 RMK A01 T02940189  RH  053%=      5-min Rain = 0
KRO1 112359Z 18016KT 29/19 A30 RMK A01 T02940189  RH  053%=      5-min Rain = 0
KRO1 120000Z 18015KT 29/19 A30 RMK A01 T02930190  RH  054%=      5-min Rain = 0
KRO1 120001Z 18014KT 29/19 A30 RMK A01 T02920190  RH  054%=      5-min Rain = 0
KRO1 120002Z 18012KT 29/19 A30 RMK A01 T02920190  RH  054%=      5-min Rain = 0
KRO1 120003Z 18014KT 29/19 A30 RMK A01 T02920191  RH  054%=      5-min Rain = 0
KRO1 120004Z 17013KT 29/19 A30 RMK A01 T02910190  RH  055%=      5-min Rain = 0
KRO1 120005Z 16013KT 29/19 A30 RMK A01 T02910190  RH  055%=      5-min Rain = 0
KRO1 120006Z 16013KT 29/19 A30 RMK A01 T02910190  RH  054%=      5-min Rain = 0
KRO1 120007Z 16014KT 29/19 A30 RMK A01 T02900189  RH  054%=      5-min Rain = 0
KRO1 120008Z 16014G19KT 29/19 A30 RMK A01 T02900189  RH  054%=      5-min Rain = 0
KRO1 120009Z 16014KT 29/19 A30 RMK A01 T02890189  RH  055%=      5-min Rain = 0
KRO1 120010Z 17014KT 29/19 A30 RMK A01 T02890189  RH  055%=      5-min Rain = 0
KRO1 120011Z 17013KT 29/19 A30 RMK A01 T02880188  RH  055%=      5-min Rain = 0
KRO1 120012Z 17013KT 29/19 A30 RMK A01 T02880188  RH  055%=      5-min Rain = 0
KRO1 120013Z 17014KT 29/19 A30 RMK A01 T02870188  RH  055%=      5-min Rain = 0
KRO1 120014Z 17016KT 29/19 A30 RMK A01 T02870187  RH  055%=      5-min Rain = 0
KRO1 120015Z 18016KT 29/19 A30 RMK A01 T02860187  RH  055%=      5-min Rain = 0
KRO1 120016Z 17016KT 29/19 A30 RMK A01 T02860187  RH  055%=      5-min Rain = 0
KRO1 120017Z 17016KT 29/19 A30 RMK A01 T02850187  RH  055%=      5-min Rain = 0
KRO1 120018Z 18015KT 29/19 A30 RMK A01 T02850188  RH  056%=      5-min Rain = 0
KRO1 120019Z 17013KT 28/19 A30 RMK A01 T02840188  RH  056%=      5-min Rain = 0
KRO1 120020Z 17013KT 28/19 A30 RMK A01 T02840188  RH  056%=      5-min Rain = 0
KRO1 120021Z 17013KT 28/19 A30 RMK A01 T02840189  RH  056%=      5-min Rain = 0
KRO1 120022Z 17014KT 28/19 A30 RMK A01 T02840188  RH  056%=      5-min Rain = 0
KRO1 120023Z 17013KT 28/19 A30 RMK A01 T02840188  RH  056%=      5-min Rain = 0
KRO1 120024Z 16012KT 28/19 A30 RMK A01 T02840188  RH  056%=      5-min Rain = 0
KRO1 120025Z 16011KT 28/19 A30 RMK A01 T02830188  RH  056%=      5-min Rain = 0
KRO1 120026Z 17010KT 28/19 A30 RMK A01 T02830189  RH  057%=      5-min Rain = 0
KRO1 120027Z 17010KT 28/19 A30 RMK A01 T02830189  RH  057%=      5-min Rain = 0
KRO1 120028Z 17011KT 28/19 A30 RMK A01 T02830189  RH  057%=      5-min Rain = 0
KRO1 120029Z 16011KT 28/19 A3001 RMK A01 T02830189  RH  057%=      5-min Rain = 0
KRO1 120030Z 16014KT 28/19 A3001 RMK A01 T02830190  RH  057%=      5-min Rain = 0
KRO1 120031Z 17012KT 28/19 A3001 RMK A01 T02820189  RH  057%=      5-min Rain = 0
KRO1 120032Z 17010KT 28/19 A3001 RMK A01 T02820190  RH  057%=      5-min Rain = 0
KRO1 120033Z 17010KT 28/19 A3001 RMK A01 T02820190  RH  057%=      5-min Rain = 0
KRO1 120034Z 16012KT 28/19 A3001 RMK A01 T02820190  RH  057%=      5-min Rain = 0
KRO1 120035Z 16011KT 28/19 A3001 RMK A01 T02820190  RH  057%=      5-min Rain = 0
KRO1 120036Z 17010KT 28/19 A3001 RMK A01 T02810190  RH  058%=      5-min Rain = 0
KRO1 120037Z 16009KT 28/19 A3001 RMK A01 T02810190  RH  058%=      5-min Rain = 0
KRO1 120038Z 16011KT 28/19 A3001 RMK A01 T02800190  RH  058%=      5-min Rain = 0
KRO1 120039Z 16011KT 28/19 A3001 RMK A01 T02800189  RH  058%=      5-min Rain = 0
KRO1 120040Z 16012KT 28/19 A3001 RMK A01 T02800189  RH  058%=      5-min Rain = 0
KRO1 120041Z 16012KT 28/19 A3001 RMK A01 T02800188  RH  057%=      5-min Rain = 0
KRO1 120042Z 16012KT 28/19 A3001 RMK A01 T02800188  RH  057%=      5-min Rain = 0
KRO1 120043Z 16012KT 28/19 A3001 RMK A01 T02800189  RH  058%=      5-min Rain = 0
KRO1 120044Z 17012KT 28/19 A3001 RMK A01 T02800189  RH  058%=      5-min Rain = 0
KRO1 120045Z 16010KT 28/19 A3001 RMK A01 T02800188  RH  058%=      5-min Rain = 0
KRO1 120046Z 16011KT 28/19 A3001 RMK A01 T02800189  RH  058%=      5-min Rain = 0
KRO1 120047Z 16011KT 28/19 A3001 RMK A01 T02800189  RH  058%=      5-min Rain = 0
KRO1 120048Z 16012KT 28/19 A3001 RMK A01 T02800189  RH  058%=      5-min Rain = 0
KRO1 120049Z 16012KT 28/19 A3001 RMK A01 T02790189  RH  058%=      5-min Rain = 0
KRO1 120050Z 16012KT 28/19 A3001 RMK A01 T02790189  RH  058%=      5-min Rain = 0
KRO1 120051Z 16010KT 28/19 A3001 RMK A01 T02790189  RH  058%=      5-min Rain = 0
KRO1 120052Z 17010KT 28/19 A3001 RMK A01 T02790189  RH  058%=      5-min Rain = 0
KRO1 120053Z 16009KT 28/19 A3001 RMK A01 T02790189  RH  058%=      5-min Rain = 0
KRO1 120054Z 16009KT 28/19 A3001 RMK A01 T02780190  RH  059%=      5-min Rain = 0
KRO1 120055Z 16011KT 28/19 A3001 RMK A01 T02770190  RH  059%=      5-min Rain = 0
KRO1 120056Z 16009KT 28/19 A3001 RMK A01 T02770190  RH  059%=      5-min Rain = 0
KRO1 120057Z 16009KT 28/19 A3001 RMK A01 T02770190  RH  059%=      5-min Rain = 0
KRO1 120058Z 16008KT 28/19 A3001 RMK A01 T02770190  RH  059%=      5-min Rain = 0
KRO1 120059Z 16009KT 28/19 A3001 RMK A01 T02770190  RH  059%=      5-min Rain = 0
KRO1 120100Z 17010KT 28/19 A3002 RMK A01 T02770190  RH  059%=      5-min Rain = 0
KRO1 120101Z 17009KT 28/19 A3002 RMK A01 T02760190  RH  059%=      5-min Rain = 0
KRO1 120102Z 16009KT 28/19 A3002 RMK A01 T02760190  RH  059%=      5-min Rain = 0
KRO1 120103Z 16008KT 28/19 A3002 RMK A01 T02760190  RH  059%=      5-min Rain = 0
KRO1 120104Z 17008KT 28/19 A3002 RMK A01 T02760190  RH  060%=      5-min Rain = 0
KRO1 120105Z 16008KT 28/19 A3002 RMK A01 T02750190  RH  060%=      5-min Rain = 0
KRO1 120106Z 17008KT 28/19 A3002 RMK A01 T02750190  RH  060%=      5-min Rain = 0
KRO1 120107Z 17007KT 28/19 A3002 RMK A01 T02750191  RH  060%=      5-min Rain = 0
KRO1 120108Z 17008KT 28/19 A3002 RMK A01 T02750191  RH  060%=      5-min Rain = 0
KRO1 120109Z 16008KT 27/19 A3002 RMK A01 T02740190  RH  060%=      5-min Rain = 0
KRO1 120110Z 16008KT 27/19 A3002 RMK A01 T02740190  RH  060%=      5-min Rain = 0
KRO1 120111Z 16007KT 27/19 A3002 RMK A01 T02740191  RH  060%=      5-min Rain = 0
KRO1 120112Z 16008KT 27/19 A3002 RMK A01 T02740191  RH  061%=      5-min Rain = 0
KRO1 120113Z 16008KT 27/19 A3002 RMK A01 T02730190  RH  061%=      5-min Rain = 0
KRO1 120114Z 16007KT 27/19 A3002 RMK A01 T02730191  RH  061%=      5-min Rain = 0
KRO1 120115Z 16008KT 27/19 A3002 RMK A01 T02720190  RH  061%=      5-min Rain = 0
KRO1 120116Z 16007KT 27/19 A3002 RMK A01 T02730191  RH  061%=      5-min Rain = 0
KRO1 120117Z 16008KT 27/19 A3002 RMK A01 T02720191  RH  061%=      5-min Rain = 0
KRO1 120118Z 16008KT 27/19 A3002 RMK A01 T02720191  RH  061%=      5-min Rain = 0
KRO1 120119Z 16007KT 27/19 A3002 RMK A01 T02710191  RH  061%=      5-min Rain = 0
KRO1 120120Z 16009KT 27/19 A3002 RMK A01 T02710191  RH  061%=      5-min Rain = 0
KRO1 120121Z 16008KT 27/19 A3003 RMK A01 T02710191  RH  061%=      5-min Rain = 0
KRO1 120122Z 16007KT 27/19 A3003 RMK A01 T02720191  RH  061%=      5-min Rain = 0
KRO1 120123Z 16008KT 27/19 A3003 RMK A01 T02720191  RH  061%=      5-min Rain = 0
KRO1 120124Z 16008KT 27/19 A3003 RMK A01 T02710191  RH  061%=      5-min Rain = 0
KRO1 120125Z 16008KT 27/19 A3003 RMK A01 T02710191  RH  062%=      5-min Rain = 0
KRO1 120126Z 16009KT 27/19 A3003 RMK A01 T02700191  RH  062%=      5-min Rain = 0
KRO1 120127Z 16009KT 27/19 A3003 RMK A01 T02700190  RH  062%=      5-min Rain = 0
KRO1 120128Z 16009KT 27/19 A3003 RMK A01 T02710191  RH  061%=      5-min Rain = 0
KRO1 120129Z 16008KT 27/19 A3002 RMK A01 T02710190  RH  061%=      5-min Rain = 0
KRO1 120130Z 16009KT 27/19 A3002 RMK A01 T02710191  RH  062%=      5-min Rain = 0
KRO1 120131Z 16010KT 27/19 A3002 RMK A01 T02710191  RH  062%=      5-min Rain = 0
KRO1 120132Z 16009KT 27/19 A3002 RMK A01 T02710191  RH  061%=      5-min Rain = 0
KRO1 120133Z 15009KT 27/19 A3002 RMK A01 T02710191  RH  061%=      5-min Rain = 0
KRO1 120134Z 16010KT 27/19 A3003 RMK A01 T02710191  RH  062%=      5-min Rain = 0
KRO1 120135Z 16008KT 27/19 A3003 RMK A01 T02710191  RH  061%=      5-min Rain = 0
KRO1 120136Z 16008KT 27/19 A3003 RMK A01 T02710190  RH  061%=      5-min Rain = 0
KRO1 120137Z 16007KT 27/19 A3003 RMK A01 T02710190  RH  061%=      5-min Rain = 0
KRO1 120138Z 16007KT 27/19 A3003 RMK A01 T02700190  RH  062%=      5-min Rain = 0
KRO1 120139Z 16007KT 27/19 A3003 RMK A01 T02690190  RH  062%=      5-min Rain = 0
KRO1 120140Z 16008KT 27/19 A3003 RMK A01 T02690190  RH  062%=      5-min Rain = 0
KRO1 120141Z 16008KT 27/19 A3003 RMK A01 T02690190  RH  062%=      5-min Rain = 0
KRO1 120142Z 16007KT 27/19 A3003 RMK A01 T02690190  RH  062%=      5-min Rain = 0
KRO1 120143Z 16009KT 27/19 A3003 RMK A01 T02690190  RH  062%=      5-min Rain = 0
KRO1 120144Z 15008KT 27/19 A3003 RMK A01 T02690190  RH  062%=      5-min Rain = 0
KRO1 120145Z 16008KT 27/19 A3003 RMK A01 T02690190  RH  062%=      5-min Rain = 0
KRO1 120146Z 16008KT 27/19 A3003 RMK A01 T02690190  RH  062%=      5-min Rain = 0
KRO1 120147Z 16008KT 27/19 A3003 RMK A01 T02680190  RH  062%=      5-min Rain = 0
KRO1 120148Z 16008KT 27/19 A3003 RMK A01 T02680190  RH  062%=      5-min Rain = 0
KRO1 120149Z 15007KT 27/19 A3003 RMK A01 T02670190  RH  063%=      5-min Rain = 0
KRO1 120150Z 15008KT 27/19 A3003 RMK A01 T02670190  RH  063%=      5-min Rain = 0
KRO1 120151Z 15008KT 27/19 A3003 RMK A01 T02670190  RH  063%=      5-min Rain = 0
KRO1 120152Z 15008KT 27/19 A3003 RMK A01 T02670190  RH  063%=      5-min Rain = 0
KRO1 120153Z 15008KT 27/19 A3003 RMK A01 T02660190  RH  063%=      5-min Rain = 0
KRO1 120154Z 15008KT 27/19 A3003 RMK A01 T02660191  RH  063%=      5-min Rain = 0
KRO1 120155Z 15008KT 27/19 A3003 RMK A01 T02660190  RH  063%=      5-min Rain = 0
KRO1 120156Z 15007KT 27/19 A3003 RMK A01 T02660191  RH  063%=      5-min Rain = 0
KRO1 120157Z 15007KT 27/19 A3003 RMK A01 T02650191  RH  064%=      5-min Rain = 0
KRO1 120158Z 15008KT 27/19 A3003 RMK A01 T02650191  RH  064%=      5-min Rain = 0
KRO1 120159Z 15008KT 27/19 A3003 RMK A01 T02650191  RH  064%=      5-min Rain = 0
KRO1 120200Z 15007KT 27/19 A3003 RMK A01 T02650191  RH  064%=      5-min Rain = 0
KRO1 120201Z 15007KT 26/19 A3003 RMK A01 T02640191  RH  064%=      5-min Rain = 0
KRO1 120202Z 15008KT 27/19 A3003 RMK A01 T02650191  RH  064%=      5-min Rain = 0
KRO1 120203Z 15008KT 26/19 A3003 RMK A01 T02640191  RH  064%=      5-min Rain = 0
KRO1 120204Z 15008KT 26/19 A3003 RMK A01 T02640191  RH  064%=      5-min Rain = 0
KRO1 120205Z 15008KT 26/19 A3003 RMK A01 T02640190  RH  064%=      5-min Rain = 0
KRO1 120206Z 14008KT 26/19 A3003 RMK A01 T02640190  RH  064%=      5-min Rain = 0
KRO1 120207Z 15008KT 26/19 A3003 RMK A01 T02640190  RH  064%=      5-min Rain = 0
KRO1 120208Z 14009KT 26/19 A3003 RMK A01 T02640191  RH  064%=      5-min Rain = 0
KRO1 120209Z 14010KT 26/19 A3003 RMK A01 T02640190  RH  064%=      5-min Rain = 0
KRO1 120210Z 14010KT 26/19 A3003 RMK A01 T02640190  RH  064%=      5-min Rain = 0
KRO1 120211Z 14009KT 26/19 A3003 RMK A01 T02640190  RH  064%=      5-min Rain = 0
KRO1 120212Z 14009KT 26/19 A3003 RMK A01 T02640190  RH  064%=      5-min Rain = 0
KRO1 120213Z 14009KT 26/19 A3003 RMK A01 T02640190  RH  064%=      5-min Rain = 0
KRO1 120214Z 14010KT 26/19 A3003 RMK A01 T02640190  RH  064%=      5-min Rain = 0
KRO1 120215Z 14010KT 26/19 A3003 RMK A01 T02640190  RH  064%=      5-min Rain = 0
KRO1 120216Z 14009KT 26/19 A3003 RMK A01 T02640190  RH  064%=      5-min Rain = 0
KRO1 120217Z 14010KT 26/19 A3003 RMK A01 T02640190  RH  064%=      5-min Rain = 0
KRO1 120218Z 14008KT 26/19 A3003 RMK A01 T02640190  RH  064%=      5-min Rain = 0
KRO1 120219Z 14009KT 26/19 A3003 RMK A01 T02640190  RH  064%=      5-min Rain = 0
KRO1 120220Z 14009KT 26/19 A3003 RMK A01 T02640190  RH  064%=      5-min Rain = 0
KRO1 120221Z 13010KT 26/19 A3003 RMK A01 T02640190  RH  064%=      5-min Rain = 0
KRO1 120222Z 13011KT 26/19 A3003 RMK A01 T02630190  RH  064%=      5-min Rain = 0
KRO1 120223Z 14010KT 26/19 A3003 RMK A01 T02640191  RH  064%=      5-min Rain = 0
KRO1 120224Z 13007KT 26/19 A3003 RMK A01 T02640190  RH  064%=      5-min Rain = 0
KRO1 120225Z 13008KT 26/19 A3003 RMK A01 T02640191  RH  064%=      5-min Rain = 0
KRO1 120226Z 14009KT 26/19 A3003 RMK A01 T02640191  RH  064%=      5-min Rain = 0
KRO1 120227Z 14010KT 26/19 A3003 RMK A01 T02630191  RH  064%=      5-min Rain = 0
KRO1 120228Z 13009KT 26/19 A3003 RMK A01 T02640191  RH  064%=      5-min Rain = 0
KRO1 120229Z 13009KT 26/19 A3003 RMK A01 T02640191  RH  065%=      5-min Rain = 0
KRO1 120230Z 13008KT 26/19 A3004 RMK A01 T02640192  RH  065%=      5-min Rain = 0
KRO1 120231Z 13008KT 26/19 A3004 RMK A01 T02640192  RH  065%=      5-min Rain = 0
KRO1 120232Z 14008KT 26/19 A3004 RMK A01 T02630192  RH  065%=      5-min Rain = 0
KRO1 120233Z 13009KT 26/19 A3004 RMK A01 T02630192  RH  065%=      5-min Rain = 0
KRO1 120234Z 13010KT 26/19 A3004 RMK A01 T02630193  RH  065%=      5-min Rain = 0
KRO1 120235Z 13009KT 26/19 A3004 RMK A01 T02630193  RH  065%=      5-min Rain = 0
KRO1 120236Z 13010KT 26/19 A3004 RMK A01 T02630193  RH  066%=      5-min Rain = 0
KRO1 120237Z 13010KT 26/19 A3004 RMK A01 T02620193  RH  066%=      5-min Rain = 0
KRO1 120238Z 13009KT 26/19 A3003 RMK A01 T02630194  RH  066%=      5-min Rain = 0
KRO1 120239Z 14010KT 26/19 A3003 RMK A01 T02620194  RH  066%=      5-min Rain = 0
KRO1 120240Z 13009KT 26/19 A3003 RMK A01 T02620194  RH  066%=      5-min Rain = 0
KRO1 120241Z 13009KT 26/19 A3004 RMK A01 T02620194  RH  066%=      5-min Rain = 0
KRO1 120242Z 14012KT 26/20 A3003 RMK A01 T02620195  RH  067%=      5-min Rain = 0
KRO1 120243Z 14011KT 26/20 A3004 RMK A01 T02620195  RH  067%=      5-min Rain = 0
KRO1 120244Z 13008KT 26/20 A3004 RMK A01 T02620195  RH  066%=      5-min Rain = 0
KRO1 120245Z 14010KT 26/20 A3004 RMK A01 T02620195  RH  067%=      5-min Rain = 0
KRO1 120246Z 14010KT 26/20 A3004 RMK A01 T02620195  RH  067%=      5-min Rain = 0
KRO1 120247Z 14010KT 26/20 A3004 RMK A01 T02620196  RH  067%=      5-min Rain = 0
KRO1 120248Z 14012KT 26/20 A3004 RMK A01 T02620196  RH  067%=      5-min Rain = 0
KRO1 120249Z 14011KT 26/20 A3004 RMK A01 T02620196  RH  067%=      5-min Rain = 0
KRO1 120250Z 14010KT 26/20 A3004 RMK A01 T02620196  RH  067%=      5-min Rain = 0
KRO1 120251Z 14010KT 26/20 A3004 RMK A01 T02620196  RH  067%=      5-min Rain = 0
KRO1 120252Z 14010KT 26/20 A3004 RMK A01 T02620196  RH  067%=      5-min Rain = 0
KRO1 120253Z 14010KT 26/20 A3004 RMK A01 T02620197  RH  067%=      5-min Rain = 0
KRO1 120254Z 14009KT 26/20 A3004 RMK A01 T02620197  RH  067%=      5-min Rain = 0
KRO1 120255Z 14009KT 26/20 A3004 RMK A01 T02620197  RH  067%=      5-min Rain = 0
KRO1 120256Z 14010KT 26/20 A3004 RMK A01 T02620197  RH  068%=      5-min Rain = 0
KRO1 120257Z 14010KT 26/20 A3004 RMK A01 T02610197  RH  068%=      5-min Rain = 0
KRO1 120258Z 14009KT 26/20 A3004 RMK A01 T02610197  RH  068%=      5-min Rain = 0
KRO1 120259Z 14008KT 26/20 A3004 RMK A01 T02610197  RH  068%=      5-min Rain = 0
KRO1 120300Z 14009KT 26/20 A3004 RMK A01 T02610198  RH  068%=      5-min Rain = 0
KRO1 120301Z 14009KT 26/20 A3004 RMK A01 T02610198  RH  068%=      5-min Rain = 0
KRO1 120302Z 14009KT 26/20 A3004 RMK A01 T02610198  RH  068%=      5-min Rain = 0
KRO1 120303Z 14008KT 26/20 A3004 RMK A01 T02610198  RH  068%=      5-min Rain = 0
KRO1 120304Z 14008KT 26/20 A3004 RMK A01 T02600198  RH  068%=      5-min Rain = 0
KRO1 120305Z 14009KT 26/20 A3004 RMK A01 T02600198  RH  069%=      5-min Rain = 0
KRO1 120306Z 14009KT 26/20 A3004 RMK A01 T02600198  RH  069%=      5-min Rain = 0
KRO1 120307Z 14009KT 26/20 A3004 RMK A01 T02600198  RH  069%=      5-min Rain = 0
KRO1 120308Z 14009KT 26/20 A3004 RMK A01 T02600198  RH  069%=      5-min Rain = 0
KRO1 120309Z 14008KT 26/20 A3004 RMK A01 T02600199  RH  069%=      5-min Rain = 0
KRO1 120310Z 13006KT 26/20 A3004 RMK A01 T02600198  RH  069%=      5-min Rain = 0
KRO1 120311Z 14007KT 26/20 A3004 RMK A01 T02600199  RH  069%=      5-min Rain = 0
KRO1 120312Z 14008KT 26/20 A3004 RMK A01 T02590199  RH  069%=      5-min Rain = 0
KRO1 120313Z 13008KT 26/20 A3004 RMK A01 T02590199  RH  069%=      5-min Rain = 0
KRO1 120314Z 14008KT 26/20 A3004 RMK A01 T02590199  RH  069%=      5-min Rain = 0
KRO1 120315Z 14008KT 26/20 A3004 RMK A01 T02590199  RH  069%=      5-min Rain = 0
KRO1 120316Z 13009KT 26/20 A3004 RMK A01 T02590199  RH  069%=      5-min Rain = 0
KRO1 120317Z 14009KT 26/20 A3004 RMK A01 T02590199  RH  069%=      5-min Rain = 0
KRO1 120318Z 14008KT 26/20 A3004 RMK A01 T02590199  RH  069%=      5-min Rain = 0
KRO1 120319Z 13008KT 26/20 A3004 RMK A01 T02590199  RH  069%=      5-min Rain = 0
KRO1 120320Z 14008KT 26/20 A3004 RMK A01 T02590199  RH  069%=      5-min Rain = 0
KRO1 120321Z 14010KT 26/20 A3004 RMK A01 T02590199  RH  070%=      5-min Rain = 0
KRO1 120322Z 14009KT 26/20 A3004 RMK A01 T02590199  RH  069%=      5-min Rain = 0
KRO1 120323Z 13009KT 26/20 A3004 RMK A01 T02590199  RH  069%=      5-min Rain = 0
KRO1 120324Z 14009KT 26/20 A3004 RMK A01 T02590199  RH  069%=      5-min Rain = 0
KRO1 120325Z 14009KT 26/20 A3004 RMK A01 T02590199  RH  069%=      5-min Rain = 0
KRO1 120326Z 13009KT 26/20 A3003 RMK A01 T02590199  RH  069%=      5-min Rain = 0
KRO1 120327Z 13009KT 26/20 A3003 RMK A01 T02590199  RH  069%=      5-min Rain = 0
KRO1 120328Z 13009KT 26/20 A3003 RMK A01 T02590199  RH  069%=      5-min Rain = 0
KRO1 120329Z 14010KT 26/20 A3003 RMK A01 T02590199  RH  069%=      5-min Rain = 0
KRO1 120330Z 13009KT 26/20 A3003 RMK A01 T02590199  RH  069%=      5-min Rain = 0
KRO1 120331Z 14009KT 26/20 A3003 RMK A01 T02590199  RH  070%=      5-min Rain = 0
KRO1 120332Z 14009KT 26/20 A3003 RMK A01 T02590199  RH  070%=      5-min Rain = 0
KRO1 120333Z 14009KT 26/20 A3004 RMK A01 T02590199  RH  070%=      5-min Rain = 0
KRO1 120334Z 14009KT 26/20 A3004 RMK A01 T02590199  RH  070%=      5-min Rain = 0
KRO1 120335Z 14010KT 26/20 A3004 RMK A01 T02590199  RH  070%=      5-min Rain = 0
KRO1 120336Z 14010KT 26/20 A3004 RMK A01 T02590199  RH  070%=      5-min Rain = 0
KRO1 120337Z 14010KT 26/20 A3004 RMK A01 T02590199  RH  069%=      5-min Rain = 0
KRO1 120338Z 14009KT 26/20 A3004 RMK A01 T02590199  RH  069%=      5-min Rain = 0
KRO1 120339Z 14010KT 26/20 A3004 RMK A01 T02590199  RH  069%=      5-min Rain = 0
KRO1 120340Z 14009KT 26/20 A3004 RMK A01 T02590199  RH  069%=      5-min Rain = 0
KRO1 120341Z 14010KT 26/20 A3004 RMK A01 T02590198  RH  069%=      5-min Rain = 0
KRO1 120342Z 14010KT 26/20 A3004 RMK A01 T02600199  RH  069%=      5-min Rain = 0
KRO1 120343Z 14011KT 26/20 A3004 RMK A01 T02600198  RH  069%=      5-min Rain = 0
KRO1 120344Z 14009KT 26/20 A3004 RMK A01 T02600198  RH  069%=      5-min Rain = 0
KRO1 120345Z 14010KT 26/20 A3004 RMK A01 T02600198  RH  069%=      5-min Rain = 0
KRO1 120346Z 14010KT 26/20 A3004 RMK A01 T02610198  RH  068%=      5-min Rain = 0
KRO1 120347Z 14010KT 26/20 A3004 RMK A01 T02610198  RH  068%=      5-min Rain = 0
KRO1 120348Z 14010KT 26/20 A3004 RMK A01 T02610198  RH  068%=      5-min Rain = 0
KRO1 120349Z 14009KT 26/20 A3004 RMK A01 T02610198  RH  068%=      5-min Rain = 0
KRO1 120350Z 14011KT 26/20 A3004 RMK A01 T02610198  RH  068%=      5-min Rain = 0
KRO1 120351Z 14010KT 26/20 A3004 RMK A01 T02620198  RH  068%=      5-min Rain = 0
KRO1 120352Z 14012KT 26/20 A3004 RMK A01 T02610197  RH  068%=      5-min Rain = 0
KRO1 120353Z 14011KT 26/20 A3004 RMK A01 T02620197  RH  067%=      5-min Rain = 0
KRO1 120354Z 15011KT 26/20 A3004 RMK A01 T02620197  RH  067%=      5-min Rain = 0
KRO1 120355Z 14011KT 26/20 A3004 RMK A01 T02620196  RH  067%=      5-min Rain = 0
KRO1 120356Z 14011KT 26/20 A3004 RMK A01 T02620196  RH  067%=      5-min Rain = 0
KRO1 120357Z 14011KT 26/20 A3004 RMK A01 T02620196  RH  067%=      5-min Rain = 0
KRO1 120358Z 14012KT 26/20 A3004 RMK A01 T02630195  RH  066%=      5-min Rain = 0
KRO1 120359Z 14012KT 26/20 A3004 RMK A01 T02630195  RH  066%=      5-min Rain = 0
KRO1 120400Z 14011KT 26/20 A3004 RMK A01 T02640195  RH  066%=      5-min Rain = 0
KRO1 120401Z 15012KT 26/20 A3004 RMK A01 T02640195  RH  066%=      5-min Rain = 0
KRO1 120402Z 14013KT 26/20 A3004 RMK A01 T02640195  RH  066%=      5-min Rain = 0
KRO1 120403Z 15013KT 26/19 A3004 RMK A01 T02640194  RH  066%=      5-min Rain = 0
KRO1 120404Z 14012KT 26/19 A3004 RMK A01 T02640194  RH  065%=      5-min Rain = 0
KRO1 120405Z 15013KT 26/19 A3004 RMK A01 T02640193  RH  065%=      5-min Rain = 0
KRO1 120406Z 14011KT 26/19 A3004 RMK A01 T02640193  RH  065%=      5-min Rain = 0
KRO1 120407Z 14014KT 26/19 A3004 RMK A01 T02640193  RH  065%=      5-min Rain = 0
KRO1 120408Z 14014KT 26/19 A3004 RMK A01 T02640193  RH  065%=      5-min Rain = 0
KRO1 120409Z 15015KT 27/19 A3004 RMK A01 T02650194  RH  065%=      5-min Rain = 0
KRO1 120410Z 14013KT 27/19 A3004 RMK A01 T02650193  RH  065%=      5-min Rain = 0
KRO1 120411Z 14014KT 27/19 A3004 RMK A01 T02650194  RH  065%=      5-min Rain = 0
KRO1 120412Z 15018KT 27/19 A3004 RMK A01 T02650194  RH  065%=      5-min Rain = 0
KRO1 120413Z 14015KT 27/19 A3004 RMK A01 T02650194  RH  065%=      5-min Rain = 0
KRO1 120414Z 14015KT 27/19 A3004 RMK A01 T02660194  RH  065%=      5-min Rain = 0
KRO1 120415Z 14014KT 27/19 A3004 RMK A01 T02660194  RH  065%=      5-min Rain = 0
KRO1 120416Z 14018KT 27/20 A3004 RMK A01 T02660195  RH  065%=      5-min Rain = 0
KRO1 120417Z 15016KT 27/19 A3004 RMK A01 T02660194  RH  065%=      5-min Rain = 0
KRO1 120418Z 15016KT 27/19 A3004 RMK A01 T02660194  RH  065%=      5-min Rain = 0
KRO1 120419Z 14015KT 27/20 A3004 RMK A01 T02660195  RH  065%=      5-min Rain = 0
KRO1 120420Z 14018KT 27/20 A3004 RMK A01 T02660195  RH  065%=      5-min Rain = 0
KRO1 120421Z 14015KT 27/20 A3004 RMK A01 T02660195  RH  065%=      5-min Rain = 0
KRO1 120422Z 14016KT 27/20 A3004 RMK A01 T02660195  RH  065%=      5-min Rain = 0
KRO1 120423Z 15014G19KT 27/20 A3004 RMK A01 T02660195  RH  065%=      5-min Rain = 0
KRO1 120424Z 14016KT 27/20 A3004 RMK A01 T02650195  RH  065%=      5-min Rain = 0
KRO1 120425Z 15016KT 27/20 A3004 RMK A01 T02660195  RH  065%=      5-min Rain = 0
KRO1 120426Z 14012KT 27/20 A3004 RMK A01 T02650195  RH  065%=      5-min Rain = 0
KRO1 120427Z 14013KT 27/20 A3004 RMK A01 T02650195  RH  065%=      5-min Rain = 0
KRO1 120428Z 14013G19KT 26/19 A3004 RMK A01 T02640194  RH  065%=      5-min Rain = 0
KRO1 120429Z 14014KT 26/19 A3004 RMK A01 T02640194  RH  065%=      5-min Rain = 0
KRO1 120430Z 14013KT 26/19 A3004 RMK A01 T02640194  RH  065%=      5-min Rain = 0
KRO1 120431Z 14014KT 26/19 A3004 RMK A01 T02640194  RH  065%=      5-min Rain = 0
KRO1 120432Z 14014KT 26/19 A3004 RMK A01 T02640194  RH  065%=      5-min Rain = 0
KRO1 120433Z 15012KT 26/19 A3004 RMK A01 T02640194  RH  065%=      5-min Rain = 0
KRO1 120434Z 14014KT 26/19 A3004 RMK A01 T02640194  RH  066%=      5-min Rain = 0
KRO1 120435Z 14015KT 26/19 A3004 RMK A01 T02640194  RH  066%=      5-min Rain = 0
KRO1 120436Z 14012KT 26/19 A3004 RMK A01 T02630194  RH  065%=      5-min Rain = 0
KRO1 120437Z 14012KT 26/19 A3004 RMK A01 T02640194  RH  065%=      5-min Rain = 0
KRO1 120438Z 14012KT 26/19 A3004 RMK A01 T02630194  RH  066%=      5-min Rain = 0
KRO1 120439Z 14014KT 26/19 A3004 RMK A01 T02630194  RH  066%=      5-min Rain = 0
KRO1 120440Z 15015KT 26/20 A3004 RMK A01 T02630195  RH  066%=      5-min Rain = 0
KRO1 120441Z 14015KT 26/19 A3004 RMK A01 T02630194  RH  066%=      5-min Rain = 0
KRO1 120442Z 14013KT 26/19 A3004 RMK A01 T02630194  RH  066%=      5-min Rain = 0
KRO1 120443Z 15014KT 26/19 A3004 RMK A01 T02630194  RH  066%=      5-min Rain = 0
KRO1 120444Z 14013KT 26/19 A3004 RMK A01 T02620194  RH  066%=      5-min Rain = 0
KRO1 120445Z 15015KT 26/19 A3004 RMK A01 T02620194  RH  066%=      5-min Rain = 0
KRO1 120446Z 15017KT 26/20 A3004 RMK A01 T02620195  RH  066%=      5-min Rain = 0
KRO1 120447Z 15014KT 26/19 A3004 RMK A01 T02620194  RH  066%=      5-min Rain = 0
KRO1 120448Z 14014KT 26/20 A3004 RMK A01 T02620195  RH  066%=      5-min Rain = 0
KRO1 120449Z 15014KT 26/20 A3004 RMK A01 T02620195  RH  067%=      5-min Rain = 0
KRO1 120450Z 15014KT 26/20 A3004 RMK A01 T02620195  RH  067%=      5-min Rain = 0
KRO1 120451Z 15012KT 26/20 A3004 RMK A01 T02620195  RH  067%=      5-min Rain = 0
KRO1 120452Z 15015KT 26/20 A3004 RMK A01 T02610195  RH  067%=      5-min Rain = 0
KRO1 120453Z 15015KT 26/20 A3004 RMK A01 T02610195  RH  067%=      5-min Rain = 0
KRO1 120454Z 15015KT 26/20 A3004 RMK A01 T02610196  RH  067%=      5-min Rain = 0
KRO1 120455Z 15016KT 26/20 A3004 RMK A01 T02610196  RH  067%=      5-min Rain = 0
KRO1 120456Z 15015KT 26/20 A3004 RMK A01 T02610196  RH  067%=      5-min Rain = 0
KRO1 120457Z 15014KT 26/20 A3004 RMK A01 T02610196  RH  067%=      5-min Rain = 0
KRO1 120458Z 15014KT 26/20 A3004 RMK A01 T02600196  RH  068%=      5-min Rain = 0
KRO1 120459Z 15012KT 26/20 A3004 RMK A01 T02600196  RH  068%=      5-min Rain = 0

Page generated in 0.1751 seconds.